CW1648 Weather Reports


Display with metric or nautical units.
time (UTC)temp
F
wind
direction
speed
MPH
gust
MPH
rain 1hr
in
rain 24hr
in
rain mn
in
humidity
%
barometer
mb
20260904060627 74 245 0.0 0.0 0.00 0.26 0.01 95 1008.6
20260904060526 74 245 0.0 0.0 0.00 0.27 0.01 95 1008.6
20260904060519 74 245 0.0 0.0 0.00 0.27 0.01 95 1008.8
20260904060426 74 245 0.0 0.0 0.00 0.27 0.01 95 1008.6
20260904060325 74 245 0.0 0.0 0.00 0.27 0.01 95 1008.7
20260904060225 74 245 0.0 0.0 0.00 0.27 0.01 95 1008.7
20260904060125 74 245 0.0 0.0 0.00 0.27 0.01 95 1008.7
20260904060025 74 245 0.0 0.0 0.00 0.28 0.01 95 1008.8
20260904060019 74 245 0.0 0.0 0.00 0.28 0.01 95 1009.1
20260904055924 74 245 0.0 0.0 0.00 0.28 0.01 95 1008.9
20260904055822 74 245 0.0 0.0 0.00 0.28 0.01 95 1008.8
20260904055722 74 245 0.0 0.0 0.00 0.28 0.01 95 1008.8
20260904055622 74 245 0.0 0.0 0.00 0.29 0.01 95 1008.8
20260904055549 74 245 0.0 0.0 0.00 0.29 0.01 95 1009.1
20260904055521 74 245 0.0 0.0 0.00 0.29 0.01 95 1008.9
20260904055419 74 245 0.0 0.0 0.00 0.29 0.01 95 1008.9
20260904055333 74 245 0.0 0.0 0.00 0.29 0.01 95 1009.0
20260904055328 74 245 0.0 0.0 0.00 0.29 0.01 95 1009.0
20260904055117 74 245 0.0 0.0 0.00 0.30 0.01 95 1009.0
20260904055019 74 245 0.0 0.0 0.00 0.31 0.01 95 1009.3
20260904055017 74 245 0.0 0.0 0.00 0.31 0.01 95 1009.1
20260904054916 74 245 0.0 0.0 0.00 0.33 0.01 95 1009.1
20260904054816 74 245 0.0 0.0 0.00 0.36 0.01 95 1009.1
20260904054715 74 245 0.0 0.0 0.00 0.39 0.01 95 1009.1
20260904054615 74 245 0.0 0.0 0.00 0.44 0.01 95 1009.2
20260904054537 74 245 0.0 0.0 0.00 0.44 0.01 95 1009.3
20260904054519 74 245 0.0 0.0 0.00 0.46 0.01 95 1009.4
20260904054515 74 245 0.0 0.0 0.00 0.48 0.01 95 1009.3
20260904054414 74 245 0.0 0.0 0.00 0.51 0.01 95 1009.2
20260904054328 74 245 0.0 0.0 0.00 0.53 0.01 95 1009.3
20260904054322 74 245 0.0 0.0 0.00 0.53 0.01 95 1009.3
20260904054113 74 245 0.0 0.0 0.00 0.54 0.01 95 1009.4
20260904054019 74 245 0.0 0.0 0.00 0.54 0.01 95 1009.6
20260904054012 74 245 0.0 0.0 0.00 0.55 0.01 95 1009.4
20260904053914 74 245 0.0 0.0 0.00 0.55 0.01 95 1009.4
20260904053813 74 245 0.0 0.0 0.00 0.56 0.01 95 1009.5
20260904053712 74 245 0.0 0.0 0.00 0.56 0.01 95 1009.6
20260904053627 74 245 0.0 0.0 0.00 0.57 0.01 95 1009.7
20260904053618 74 245 0.0 0.0 0.00 0.57 0.01 95 1009.7
20260904053534 74 245 0.0 0.0 0.00 0.57 0.01 95 1009.9
20260904053415 74 245 0.0 0.0 0.00 0.57 0.01 95 1009.7
20260904053406 74 245 0.0 0.0 0.00 0.58 0.01 95 1009.7
20260904053209 74 233 0.0 0.0 0.00 0.58 0.01 95 1009.7
20260904053146 74 232 0.0 0.0 0.00 0.58 0.01 95 1009.7
20260904053034 74 232 0.0 0.0 0.00 0.58 0.01 95 1010.0
20260904053005 74 232 0.0 0.0 0.00 0.58 0.01 95 1009.7
20260904052905 74 232 0.0 0.0 0.00 0.59 0.01 95 1009.8
20260904052806 74 232 0.0 0.0 0.00 0.59 0.01 95 1009.8
20260904052737 74 232 0.0 0.0 0.00 0.60 0.01 95 1009.8
20260904052733 74 232 0.0 0.0 0.00 0.60 0.01 95 1009.7
20260904052728 74 232 0.0 0.0 0.00 0.59 0.01 95 1009.8
20260904052611 74 232 0.0 0.0 0.00 0.60 0.01 95 1009.8
20260904052519 74 232 0.0 0.0 0.00 0.60 0.01 95 1009.9
20260904052404 74 232 0.0 0.0 0.00 0.60 0.01 95 1009.7
20260904052306 74 232 0.0 0.0 0.00 0.60 0.01 95 1009.7
20260904052203 74 232 0.0 0.0 0.00 0.60 0.01 95 1009.7
20260904052034 74 232 0.0 0.0 0.00 0.60 0.01 95 1009.7
20260904052019 74 232 0.0 0.0 0.00 0.60 0.01 95 1009.8
20260904052002 74 232 0.0 0.0 0.00 0.60 0.01 95 1009.6
20260904051902 74 232 0.0 0.0 0.00 0.61 0.01 95 1009.6
20260904051758 74 232 0.0 0.0 0.00 0.61 0.01 95 1009.5
20260904051700 74 232 0.0 0.0 0.00 0.61 0.01 95 1009.5
20260904051533 74 232 0.0 0.0 0.00 0.61 0.01 95 1009.4
20260904051519 74 232 0.0 0.0 0.00 0.61 0.01 95 1009.6
20260904051500 74 232 0.0 0.0 0.00 0.61 0.01 95 1009.4
20260904051358 74 232 0.0 0.0 0.00 0.61 0.01 95 1009.4
20260904051258 74 232 0.0 0.0 0.00 0.61 0.01 95 1009.4
20260904051158 74 232 0.0 0.0 0.00 0.61 0.01 95 1009.4
20260904051031 74 232 0.0 0.0 0.00 0.61 0.01 95 1009.3
20260904051019 74 232 0.0 0.0 0.00 0.61 0.01 95 1009.5
20260904050956 74 232 0.0 0.0 0.00 0.61 0.01 95 1009.3
20260904050856 74 232 0.0 0.0 0.01 0.61 0.01 95 1009.3
20260904050755 74 232 0.0 0.0 0.01 0.61 0.01 95 1009.3
20260904050655 74 232 0.0 0.0 0.01 0.61 0.01 95 1009.3
20260904050613 74 232 0.0 0.0 0.01 0.61 0.01 94 1009.3
20260904050601 74 232 0.0 0.0 0.01 0.61 0.01 94 1009.3
20260904050519 74 232 0.0 0.0 0.01 0.61 0.01 94 1009.5
20260904050354 74 232 0.0 0.0 0.01 0.61 0.01 94 1009.3
20260904050252 74 232 0.0 0.0 0.01 0.61 0.01 94 1009.2
20260904050206 74 232 0.0 0.0 0.01 0.61 0.01 94 1009.2
20260904050201 74 232 0.0 0.0 0.01 0.61 0.01 94 1009.2
20260904050029 74 232 0.0 0.0 0.01 0.61 0.01 94 1009.2
20260904050020 74 232 0.0 0.0 0.01 0.61 0.01 94 1009.2
20260904050013 74 232 0.0 0.0 0.01 0.61 0.01 94 1009.2
20260904045749 74 232 0.0 0.0 0.01 0.61 0.01 94 1009.2
20260904045649 74 232 0.0 0.0 0.01 0.61 0.01 94 1009.1
20260904045635 74 232 0.0 0.0 0.01 0.61 0.01 94 1009.0
20260904045519 74 232 0.0 0.0 0.01 0.61 0.01 94 1009.2
20260904045447 74 232 0.0 0.0 0.01 0.61 0.01 94 1009.0
20260904045400 74 232 0.0 0.0 0.01 0.61 0.01 94 1009.0
20260904045356 74 232 0.0 0.0 0.01 0.61 0.01 94 1009.0
20260904045146 74 232 0.0 0.0 0.01 0.61 0.01 94 1009.0
20260904045025 74 232 0.0 0.0 0.01 0.61 0.01 94 1009.0
20260904045019 74 232 0.0 0.0 0.01 0.61 0.01 94 1009.2
20260904044946 74 232 0.0 0.0 0.01 0.61 0.01 94 1009.0
20260904044845 74 232 0.0 0.0 0.01 0.61 0.01 94 1009.0
20260904044817 74 232 0.0 0.0 0.01 0.61 0.01 94 1009.1
20260904044745 74 232 0.0 0.0 0.01 0.61 0.01 94 1009.0
20260904044714 74 232 0.0 0.0 0.01 0.61 0.01 94 1009.1
20260904044708 74 232 0.0 0.0 0.01 0.61 0.01 94 1009.1
20260904044659 74 232 0.0 0.0 0.01 0.61 0.01 94 1009.1
20260904044534 74 232 0.0 0.0 0.01 0.61 0.01 94 1009.3
20260904044344 74 232 0.0 0.0 0.01 0.61 0.01 94 1009.1
20260904044248 74 232 0.0 0.0 0.01 0.61 0.01 94 1009.0
20260904044244 74 232 0.0 0.0 0.01 0.61 0.01 94 1009.0
20260904044143 74 232 0.0 0.0 0.01 0.61 0.01 94 1009.0
20260904044131 74 232 0.0 0.0 0.01 0.61 0.01 94 1009.0
20260904044019 74 232 0.0 0.0 0.01 0.61 0.01 94 1009.2
20260904044017 74 232 0.0 0.0 0.01 0.61 0.01 94 1009.0
20260904044012 74 232 0.0 0.0 0.01 0.61 0.01 94 1009.0
20260904043749 74 232 0.0 0.0 0.01 0.61 0.01 94 1009.1
20260904043523 74 232 0.0 0.0 0.01 0.61 0.01 94 1009.1
20260904043519 74 232 0.0 0.0 0.01 0.61 0.01 94 1009.3
20260904043439 74 232 0.0 0.0 0.01 0.61 0.01 94 1009.1
20260904043339 74 232 0.0 0.0 0.01 0.61 0.01 94 1009.1
20260904043251 74 232 0.0 0.0 0.01 0.61 0.01 94 1009.1
20260904043247 74 232 0.0 0.0 0.01 0.61 0.01 94 1009.0
20260904043057 74 232 0.0 0.0 0.01 0.61 0.01 94 1009.1
20260904043044 74 232 0.0 0.0 0.01 0.61 0.01 94 1009.1
20260904043019 74 232 0.0 0.0 0.01 0.61 0.01 94 1009.3
20260904042836 74 232 0.0 0.0 0.01 0.61 0.01 94 1009.1
20260904042736 74 232 0.0 0.0 0.01 0.61 0.01 94 1009.2
20260904042703 74 232 0.0 0.0 0.01 0.61 0.01 94 1009.2
20260904042542 74 232 0.0 0.0 0.01 0.61 0.01 94 1009.2
20260904042519 74 232 0.0 0.0 0.01 0.61 0.01 94 1009.4
20260904042333 74 232 0.0 0.0 0.01 0.61 0.01 94 1009.3
20260904042233 74 232 0.0 0.0 0.01 0.61 0.01 94 1009.3
20260904042133 74 232 0.0 0.0 0.01 0.61 0.01 94 1009.3
20260904042019 74 232 0.0 0.0 0.01 0.61 0.01 94 1009.6
20260904041932 74 232 0.0 0.0 0.01 0.61 0.01 94 1009.4
20260904041832 74 232 0.0 0.0 0.01 0.61 0.01 94 1009.4
20260904041731 74 232 0.0 0.0 0.01 0.61 0.01 94 1009.5
20260904041644 74 232 0.0 0.0 0.01 0.61 0.01 94 1009.6
20260904041640 74 232 0.0 0.0 0.01 0.61 0.01 94 1009.6
20260904041519 74 232 0.0 0.0 0.01 0.61 0.01 94 1009.8
20260904041517 74 232 0.0 0.0 0.01 0.61 0.01 94 1009.6
20260904041430 74 232 0.0 0.0 0.01 0.61 0.01 94 1009.6
20260904041228 74 232 0.0 0.0 0.01 0.61 0.01 94 1009.8
20260904041128 74 232 0.0 0.0 0.01 0.61 0.01 94 1009.8
20260904041045 74 232 0.0 0.0 0.01 0.61 0.01 94 1009.8
20260904041033 74 232 0.0 0.0 0.01 0.61 0.01 94 1009.8
20260904041019 74 232 0.0 0.0 0.01 0.61 0.01 94 1010.0
20260904040827 74 232 0.0 0.0 0.00 0.60 0.00 93 1009.8
20260904040725 74 232 0.0 0.0 0.00 0.60 0.00 93 1009.8
20260904040625 74 232 0.0 0.0 0.00 0.60 0.00 93 1009.9
20260904040544 74 232 0.0 0.0 0.00 0.60 0.00 93 1009.8
20260904040531 74 232 0.0 0.0 0.00 0.60 0.00 93 1009.9
20260904040519 74 232 0.0 0.0 0.00 0.60 0.00 93 1010.0
20260904040324 74 232 0.0 0.0 0.00 0.60 0.00 93 1009.8
20260904040223 74 232 0.0 0.0 0.00 0.60 0.00 93 1009.8
20260904040136 74 232 0.0 0.0 0.00 0.60 0.00 93 1009.8
20260904040132 74 232 0.0 0.0 0.00 0.60 0.00 93 1009.8
20260904040019 74 232 0.0 0.0 0.00 0.60 0.00 93 1010.0
20260904040012 74 232 0.0 0.0 0.00 0.60 0.00 93 1009.8
20260904035922 74 232 0.0 0.0 0.00 0.60 0.60 93 1009.8
20260904035821 74 232 0.0 0.0 0.00 0.60 0.60 93 1009.8
20260904035720 74 232 0.0 0.0 0.00 0.60 0.60 93 1009.8
20260904035620 74 232 0.0 0.0 0.00 0.60 0.60 93 1009.8
20260904035519 74 232 0.0 0.0 0.00 0.60 0.60 93 1010.0
20260904035513 74 232 0.0 0.0 0.00 0.60 0.60 93 1009.9
20260904035430 74 232 0.0 0.0 0.00 0.60 0.60 93 1009.8
20260904035425 74 232 0.0 0.0 0.00 0.60 0.60 93 1009.9
20260904035216 74 232 0.0 0.0 0.00 0.60 0.60 93 1009.8
20260904035115 74 232 0.0 0.0 0.00 0.60 0.60 93 1009.8
20260904035056 74 232 0.0 0.0 0.00 0.60 0.60 93 1009.7
20260904035044 74 232 0.0 0.0 0.00 0.60 0.60 93 1009.8
20260904035019 74 232 0.0 0.0 0.00 0.60 0.60 93 1009.9
20260904034932 74 232 0.0 0.0 0.00 0.60 0.60 93 1009.8
20260904034613 74 232 0.0 0.0 0.00 0.60 0.60 93 1009.7
20260904034546 74 232 0.0 0.0 0.00 0.60 0.60 93 1009.7
20260904034542 74 232 0.0 0.0 0.00 0.60 0.60 93 1009.8
20260904034532 74 232 0.0 0.0 0.00 0.60 0.60 93 1009.7
20260904034519 74 232 0.0 0.0 0.00 0.60 0.60 93 1009.8
20260904034225 74 232 0.0 0.0 0.00 0.60 0.60 93 1009.8
20260904034221 74 232 0.0 0.0 0.00 0.60 0.60 93 1009.8
20260904034049 74 232 0.0 0.0 0.00 0.60 0.60 93 1009.9
20260904034013 74 232 0.0 0.0 0.00 0.60 0.60 93 1009.8
20260904033910 74 232 0.0 0.0 0.00 0.60 0.60 93 1009.8
20260904033810 74 232 0.0 0.0 0.00 0.60 0.60 93 1009.8
20260904033708 74 232 0.0 0.0 0.00 0.60 0.60 93 1009.8
20260904033608 74 232 0.0 0.0 0.00 0.60 0.60 93 1009.8
20260904033519 74 232 0.0 0.0 0.00 0.60 0.60 93 1010.0
20260904033508 74 232 0.0 0.0 0.00 0.60 0.60 93 1009.9
20260904033408 74 232 0.0 0.0 0.00 0.60 0.60 93 1009.9
20260904033306 74 232 0.0 0.0 0.00 0.60 0.60 93 1009.9
20260904033206 74 232 0.0 0.0 0.00 0.60 0.60 93 1009.9
20260904033106 74 232 0.0 0.0 0.00 0.60 0.60 93 1010.0
20260904033019 74 232 0.0 0.0 0.00 0.60 0.60 93 1010.0
20260904033005 74 232 0.0 0.0 0.00 0.60 0.60 93 1009.9
20260904032905 74 232 0.0 0.0 0.00 0.60 0.60 93 1010.0
20260904032803 74 232 0.0 0.0 0.00 0.60 0.60 93 1010.0
20260904032716 74 232 0.0 0.0 0.00 0.60 0.60 93 1010.0
20260904032712 74 232 0.0 0.0 0.00 0.60 0.60 93 1010.0
20260904032519 74 232 0.0 0.0 0.00 0.60 0.60 93 1010.1
20260904032508 74 232 0.0 0.0 0.00 0.60 0.60 93 1010.0
20260904032502 74 232 0.0 0.0 0.00 0.60 0.60 93 1010.0
20260904032402 74 232 0.0 0.0 0.00 0.60 0.60 93 1010.1
20260904032318 74 232 0.0 0.0 0.00 0.60 0.60 93 1010.1
20260904032314 74 232 0.0 0.0 0.00 0.60 0.60 93 1010.1
20260904032310 74 232 0.0 0.0 0.00 0.60 0.60 93 1010.1
20260904032116 74 232 0.0 0.0 0.00 0.60 0.60 93 1010.1
20260904032019 74 232 0.0 0.0 0.00 0.60 0.60 93 1010.3
20260904032000 74 232 0.0 0.0 0.00 0.60 0.60 93 1010.2
20260904031900 74 232 0.0 0.0 0.00 0.60 0.60 93 1010.2
20260904031759 74 232 0.0 0.0 0.00 0.60 0.60 93 1010.2
20260904031659 74 232 0.0 0.0 0.00 0.60 0.60 93 1010.2
20260904031559 74 232 0.0 0.0 0.00 0.60 0.60 93 1010.3
20260904031519 74 232 0.0 0.0 0.00 0.60 0.60 93 1010.4
20260904031506 74 232 0.0 0.0 0.00 0.60 0.60 93 1010.3
20260904031458 74 232 0.0 0.0 0.00 0.60 0.60 93 1010.3
20260904031358 74 232 0.0 0.0 0.00 0.60 0.60 92 1010.3
20260904031258 74 232 0.0 0.0 0.00 0.60 0.60 92 1010.4
20260904031229 74 232 0.0 0.0 0.00 0.60 0.60 92 1010.4
20260904031224 74 232 0.0 0.0 0.00 0.60 0.60 92 1010.4
20260904031019 74 232 0.0 0.0 0.00 0.60 0.60 92 1010.5
20260904030956 74 232 0.0 0.0 0.00 0.60 0.60 92 1010.4
20260904030856 74 232 0.0 0.0 0.00 0.60 0.60 92 1010.4
20260904030756 74 232 0.0 0.0 0.00 0.60 0.60 92 1010.4
20260904030655 74 232 0.0 0.0 0.00 0.60 0.60 92 1010.4
20260904030614 74 232 0.0 0.0 0.00 0.60 0.60 92 1010.4
20260904030600 74 232 0.0 0.0 0.00 0.60 0.60 92 1010.4
20260904030519 74 232 0.0 0.0 0.00 0.60 0.60 92 1010.5
20260904030354 74 232 0.0 0.0 0.00 0.60 0.60 92 1010.4
20260904030253 74 232 0.0 0.0 0.00 0.60 0.60 92 1010.3
20260904030203 74 232 0.0 0.0 0.00 0.60 0.60 92 1010.3
20260904030159 74 232 0.0 0.0 0.00 0.60 0.60 92 1010.3
20260904030019 75 232 0.0 0.0 0.00 0.60 0.60 92 1010.4
20260904030006 74 232 0.0 0.0 0.00 0.60 0.60 92 1010.3
20260904025949 74 232 0.0 0.0 0.00 0.60 0.60 92 1010.3
20260904025848 74 232 0.0 0.0 0.00 0.60 0.60 92 1010.4
20260904025747 74 232 0.0 0.0 0.00 0.60 0.60 92 1010.3
20260904025647 74 232 0.0 0.0 0.00 0.60 0.60 92 1010.4
20260904025547 74 232 0.0 0.0 0.00 0.60 0.60 92 1010.3
20260904025519 75 232 0.0 0.0 0.00 0.60 0.60 92 1010.4
20260904025507 74 232 0.0 0.0 0.00 0.60 0.60 92 1010.3
20260904025446 74 232 0.0 0.0 0.00 0.60 0.60 92 1010.3
20260904025346 74 232 0.0 0.0 0.00 0.60 0.60 92 1010.2
20260904025245 75 232 0.0 0.0 0.00 0.60 0.60 92 1010.3
20260904025145 75 232 0.0 0.0 0.00 0.60 0.60 92 1010.2
20260904025044 75 232 0.0 0.0 0.00 0.60 0.60 92 1010.2
20260904025019 75 232 0.0 0.0 0.00 0.60 0.60 92 1010.3
20260904025005 75 232 0.0 0.0 0.00 0.60 0.60 92 1010.2
20260904024944 75 232 0.0 0.0 0.00 0.60 0.60 92 1010.2
20260904024843 75 232 0.0 0.0 0.00 0.60 0.60 92 1010.2
20260904024743 75 232 0.0 0.0 0.00 0.60 0.60 92 1010.2
20260904024643 75 232 0.0 0.0 0.00 0.60 0.60 92 1010.2
20260904024543 75 232 0.0 0.0 0.00 0.60 0.60 92 1010.2
20260904024519 75 232 0.0 0.0 0.00 0.60 0.60 92 1010.3
20260904024505 75 232 0.0 0.0 0.00 0.60 0.60 92 1010.2
20260904024442 75 232 0.0 0.0 0.00 0.60 0.60 91 1010.2
20260904024348 75 232 0.0 0.0 0.00 0.60 0.60 91 1010.1
20260904024344 75 232 0.0 0.0 0.00 0.60 0.60 91 1010.2
20260904024335 75 232 0.0 0.0 0.00 0.60 0.60 91 1010.2
20260904024222 75 232 0.0 0.0 0.00 0.60 0.60 91 1010.2
20260904024019 75 232 0.0 0.0 0.00 0.60 0.60 91 1010.2
20260904023938 75 232 0.0 0.0 0.00 0.60 0.60 91 1010.1
20260904023837 75 232 0.0 0.0 0.00 0.60 0.60 91 1010.1
20260904023736 75 232 0.0 0.0 0.00 0.60 0.60 91 1010.1
20260904023635 75 232 0.0 0.0 0.00 0.60 0.60 91 1010.0
20260904023549 75 232 0.0 0.0 0.00 0.60 0.60 91 1010.1
20260904023535 75 232 0.0 0.0 0.00 0.60 0.60 91 1010.1
20260904023504 75 232 0.0 0.0 0.00 0.60 0.60 91 1010.0
20260904023435 75 232 0.0 0.0 0.00 0.60 0.60 91 1010.0
20260904023334 75 232 0.0 0.0 0.00 0.60 0.60 91 1010.1
20260904023235 75 232 0.0 0.0 0.00 0.60 0.60 91 1010.0
20260904023134 75 232 0.0 0.0 0.00 0.60 0.60 91 1010.1
20260904023019 75 232 0.0 0.0 0.00 0.60 0.60 91 1010.1
20260904023003 75 232 0.0 0.0 0.00 0.60 0.60 91 1010.0
20260904022934 75 232 0.0 0.0 0.00 0.60 0.60 91 1010.0
20260904022832 75 232 0.0 0.0 0.00 0.60 0.60 91 1010.0
20260904022732 75 232 0.0 0.0 0.00 0.60 0.60 91 1010.0
20260904022631 75 232 0.0 0.0 0.00 0.60 0.60 91 1010.0
20260904022519 75 232 0.0 0.0 0.00 0.60 0.60 91 1010.1
20260904022502 75 232 0.0 0.0 0.00 0.60 0.60 91 1010.0
20260904022443 75 232 0.0 0.0 0.00 0.60 0.60 91 1010.1
20260904022439 75 232 0.0 0.0 0.00 0.60 0.60 91 1010.0
20260904022230 75 232 0.0 0.0 0.00 0.60 0.60 91 1010.1
20260904022211 75 232 0.0 0.0 0.00 0.60 0.60 90 1010.2
20260904022206 75 232 0.0 0.0 0.00 0.60 0.60 90 1010.1
20260904022045 75 232 0.0 0.0 0.00 0.60 0.60 90 1010.2
20260904022019 75 232 0.0 0.0 0.00 0.60 0.60 90 1010.3
20260904021728 75 232 0.0 0.0 0.00 0.60 0.60 90 1010.2
20260904021628 75 232 0.0 0.0 0.00 0.60 0.60 90 1010.2
20260904021526 75 232 0.0 0.0 0.00 0.60 0.60 90 1010.2
20260904021519 75 232 0.0 0.0 0.00 0.60 0.60 90 1010.2
20260904021502 75 232 0.0 0.0 0.00 0.60 0.60 90 1010.1
20260904021426 75 232 0.0 0.0 0.00 0.60 0.60 90 1010.1
20260904021326 75 232 0.0 0.0 0.00 0.60 0.60 90 1010.2
20260904021226 75 232 0.0 0.0 0.00 0.60 0.60 90 1010.3
20260904021126 75 232 0.0 0.0 0.00 0.60 0.60 90 1010.3
20260904021045 75 232 0.0 0.0 0.00 0.60 0.60 90 1010.3
20260904021034 75 232 0.0 0.0 0.00 0.60 0.60 90 1010.4
20260904021032 75 232 0.0 0.0 0.00 0.60 0.60 90 1010.3
20260904020904 75 232 0.0 0.0 0.00 0.60 0.60 90 1010.4
20260904020900 76 232 0.0 0.0 0.00 0.60 0.60 90 1010.3
20260904020856 76 232 0.0 0.0 0.00 0.60 0.60 90 1010.4
20260904020851 75 232 0.0 0.0 0.00 0.60 0.60 90 1010.4
20260904020519 76 232 0.0 0.0 0.00 0.60 0.60 90 1010.5
20260904020501 76 232 0.0 0.0 0.00 0.60 0.60 90 1010.4
20260904020434 76 232 0.0 0.0 0.00 0.60 0.60 90 1010.4
20260904020430 76 232 0.0 0.0 0.00 0.60 0.60 90 1010.4
20260904020221 76 232 0.0 0.0 0.00 0.60 0.60 90 1010.4
20260904020120 76 232 0.0 0.0 0.00 0.60 0.60 90 1010.4
20260904020034 76 232 0.0 0.0 0.00 0.60 0.60 90 1010.6
20260904020003 76 232 0.0 0.0 0.00 0.60 0.60 90 1010.5
20260904015941 76 232 0.0 0.0 0.00 0.60 0.60 90 1010.5
20260904015828 76 232 0.0 0.0 0.00 0.60 0.60 90 1010.5
20260904015617 76 232 0.0 0.0 0.00 0.60 0.60 90 1010.6
20260904015519 76 232 0.0 0.0 0.00 0.60 0.60 90 1010.7
20260904015503 76 232 0.0 0.0 0.00 0.60 0.60 90 1010.6
20260904015416 76 232 0.0 0.0 0.00 0.60 0.60 90 1010.6
20260904015316 76 232 0.0 0.0 0.00 0.60 0.60 90 1010.7
20260904015215 76 232 0.0 0.0 0.00 0.60 0.60 90 1010.7
20260904015115 76 232 0.0 0.0 0.00 0.60 0.60 90 1010.7
20260904015019 76 232 0.0 0.0 0.00 0.60 0.60 89 1010.8
20260904015014 76 232 0.0 0.0 0.00 0.60 0.60 89 1010.7
20260904015002 76 232 0.0 0.0 0.00 0.60 0.60 89 1010.7
20260904014926 76 232 0.0 0.0 0.00 0.60 0.60 89 1010.7
20260904014922 76 232 0.0 0.0 0.00 0.60 0.60 89 1010.7
20260904014712 76 232 0.0 0.0 0.00 0.60 0.60 89 1010.8
20260904014612 76 232 0.0 0.0 0.00 0.60 0.60 89 1010.7
20260904014534 76 232 0.0 0.0 0.00 0.60 0.60 89 1010.7
20260904014512 76 232 0.0 0.0 0.00 0.60 0.60 89 1010.7
20260904014501 76 232 0.0 0.0 0.00 0.60 0.60 89 1010.7
20260904014410 76 232 0.0 0.0 0.00 0.60 0.60 89 1010.7
20260904014310 76 232 0.0 0.0 0.00 0.60 0.60 89 1010.6
20260904014209 76 232 0.0 0.0 0.00 0.60 0.60 89 1010.6
20260904014109 76 232 0.0 0.0 0.00 0.60 0.60 89 1010.5
20260904014023 76 232 0.0 0.0 0.00 0.60 0.60 89 1010.5
20260904014019 76 232 0.0 0.0 0.00 0.60 0.60 89 1010.6
20260904014016 76 232 0.0 0.0 0.00 0.60 0.60 89 1010.6
20260904013807 76 232 0.0 0.0 0.00 0.60 0.60 89 1010.6
20260904013708 76 232 0.0 0.0 0.00 0.60 0.60 89 1010.6
20260904013607 76 232 0.0 0.0 0.00 0.60 0.60 89 1010.6
20260904013519 76 232 0.0 0.0 0.00 0.60 0.60 89 1010.7
20260904013507 76 232 0.0 0.0 0.00 0.60 0.60 89 1010.7
20260904013456 76 232 0.0 0.0 0.00 0.60 0.60 89 1010.7
20260904013406 76 232 0.0 0.0 0.00 0.60 0.60 89 1010.6
20260904013305 76 232 0.0 0.0 0.00 0.60 0.60 89 1010.7
20260904013205 76 232 0.0 0.0 0.00 0.60 0.60 89 1010.7
20260904013105 76 232 0.0 0.0 0.00 0.60 0.60 89 1010.7
20260904013019 76 232 0.0 0.0 0.00 0.60 0.60 89 1010.7
20260904012954 76 232 0.0 0.0 0.00 0.60 0.60 89 1010.7
20260904012904 76 232 0.0 0.0 0.00 0.60 0.60 89 1010.6
20260904012803 76 232 0.0 0.0 0.00 0.60 0.60 89 1010.7
20260904012703 76 232 0.0 0.0 0.00 0.60 0.60 89 1010.6
20260904012601 76 232 0.0 0.0 0.00 0.60 0.60 89 1010.7
20260904012519 76 232 0.0 0.0 0.00 0.60 0.60 89 1010.6
20260904012455 76 232 0.0 0.0 0.00 0.60 0.60 89 1010.6
20260904012414 76 232 0.0 0.0 0.00 0.60 0.60 89 1010.7
20260904012410 76 232 0.0 0.0 0.00 0.60 0.60 89 1010.6
20260904012200 76 232 0.0 0.0 0.00 0.60 0.60 89 1010.6
20260904012100 76 232 0.0 0.0 0.00 0.60 0.60 89 1010.6
20260904012034 76 232 0.0 0.0 0.00 0.60 0.60 89 1010.6
20260904012019 76 232 0.0 0.0 0.00 0.60 0.60 89 1010.7
20260904012007 76 232 0.0 0.0 0.00 0.60 0.60 89 1010.6
20260904011759 76 232 0.0 0.0 0.00 0.60 0.60 89 1010.7
20260904011658 76 232 0.0 0.0 0.00 0.60 0.60 89 1010.7
20260904011558 76 232 0.0 0.0 0.00 0.60 0.60 89 1010.8
20260904011519 76 232 0.0 0.0 0.00 0.60 0.60 89 1010.7
20260904011517 76 232 0.0 0.0 0.00 0.60 0.60 89 1010.7
20260904011405 76 232 0.0 0.0 0.00 0.60 0.60 89 1010.8
20260904011155 76 232 0.0 0.0 0.00 0.60 0.60 89 1010.8
20260904011055 76 232 0.0 0.0 0.00 0.60 0.60 89 1010.8
20260904011019 77 232 0.0 0.0 0.00 0.60 0.60 89 1010.9
20260904011014 76 232 0.0 0.0 0.00 0.60 0.60 89 1010.9
20260904011004 76 232 0.0 0.0 0.00 0.60 0.60 89 1010.9
20260904010753 76 232 0.0 0.0 0.00 0.60 0.60 88 1010.9
20260904010706 76 232 0.0 0.0 0.00 0.60 0.60 88 1011.0
20260904010702 77 232 0.0 0.0 0.00 0.60 0.60 88 1011.0
20260904010549 77 232 0.0 0.0 0.00 0.60 0.60 88 1011.0
20260904010452 77 232 0.0 0.0 0.00 0.60 0.60 88 1011.0
20260904010400 77 232 0.0 0.0 0.00 0.60 0.60 88 1011.0
20260904010351 77 232 0.0 0.0 0.00 0.60 0.60 88 1011.0
20260904010240 77 232 0.0 0.0 0.00 0.60 0.60 88 1010.9
20260904010234 77 232 0.0 0.0 0.00 0.60 0.60 88 1011.0
20260904010115 77 232 0.0 0.0 0.00 0.60 0.60 88 1010.9
20260904010019 77 232 0.0 0.0 0.00 0.60 0.60 88 1010.9
20260904005857 77 232 0.0 0.0 0.00 0.60 0.60 87 1010.9
20260904005647 77 232 0.0 0.0 0.00 0.60 0.60 87 1010.7
20260904005549 77 232 0.0 0.0 0.00 0.60 0.60 87 1010.7
20260904005547 77 232 0.0 0.0 0.00 0.60 0.60 87 1010.7
20260904005446 77 232 0.0 0.0 0.00 0.60 0.60 87 1010.7
20260904005346 77 232 0.0 0.0 0.00 0.60 0.60 87 1010.7
20260904005246 77 232 0.0 0.0 0.00 0.60 0.60 87 1010.7
20260904005145 77 232 0.0 0.0 0.00 0.60 0.60 87 1010.8
20260904005045 77 232 0.0 0.0 0.00 0.60 0.60 87 1010.8
20260904005019 77 232 0.0 0.0 0.00 0.60 0.60 87 1010.9
20260904004944 77 232 0.0 0.0 0.00 0.60 0.60 87 1010.9
20260904004857 77 232 0.0 0.0 0.00 0.60 0.60 87 1010.9
20260904004853 77 232 0.0 0.0 0.00 0.60 0.60 87 1010.9
20260904004643 77 232 0.0 0.0 0.00 0.60 0.60 87 1010.9
20260904004543 77 232 0.0 0.0 0.00 0.60 0.60 87 1010.8
20260904004519 77 232 0.0 0.0 0.00 0.60 0.60 87 1010.8
20260904004500 77 232 0.0 0.0 0.00 0.60 0.60 87 1010.8
20260904004449 77 232 0.0 0.0 0.00 0.60 0.60 87 1010.8
20260904004239 77 232 0.0 0.0 0.00 0.60 0.60 87 1010.8
20260904004139 77 232 0.0 0.0 0.00 0.60 0.60 87 1010.8
20260904004039 77 232 0.0 0.0 0.00 0.60 0.60 87 1010.8
20260904004019 77 232 0.0 0.0 0.00 0.60 0.60 87 1010.7
20260904003938 77 232 0.0 0.0 0.00 0.60 0.60 87 1010.7
20260904003835 77 232 0.0 0.0 0.00 0.60 0.60 87 1010.7
20260904003735 77 232 0.0 0.0 0.00 0.60 0.60 86 1010.8
20260904003648 77 232 0.0 0.0 0.00 0.60 0.60 86 1010.8
20260904003644 77 232 0.0 0.0 0.00 0.60 0.60 86 1010.8
20260904003519 77 232 0.0 0.0 0.00 0.60 0.60 86 1010.8
20260904003434 77 232 0.0 0.0 0.00 0.60 0.60 86 1010.8
20260904003345 77 232 0.0 0.0 0.00 0.60 0.60 86 1010.8
20260904003341 77 232 0.0 0.0 0.00 0.60 0.60 86 1010.8
20260904003132 77 232 0.0 0.0 0.00 0.60 0.60 86 1010.8
20260904003031 78 232 0.0 0.0 0.00 0.60 0.60 86 1010.9
20260904003019 78 232 0.0 0.0 0.00 0.60 0.60 86 1010.8
20260904002931 78 232 0.0 0.0 0.00 0.60 0.60 86 1010.8
20260904002843 78 232 0.0 0.0 0.00 0.60 0.60 86 1010.8
20260904002839 78 232 0.0 0.0 0.00 0.60 0.60 86 1010.8
20260904002702 78 232 0.0 0.0 0.00 0.60 0.60 86 1010.7
20260904002657 78 232 0.0 0.0 0.00 0.60 0.60 86 1010.7
20260904002652 78 232 0.0 0.0 0.00 0.60 0.60 86 1010.8
20260904002534 78 232 0.0 0.0 0.00 0.60 0.60 86 1010.7
20260904002520 78 232 0.0 0.0 0.00 0.60 0.60 86 1010.7
20260904002327 78 232 0.0 0.0 0.00 0.60 0.60 86 1010.6
20260904002227 78 232 0.0 0.0 0.00 0.60 0.60 86 1010.6
20260904002126 78 232 0.0 0.0 0.00 0.60 0.60 86 1010.5
20260904002026 78 232 0.0 0.0 0.00 0.60 0.60 85 1010.4
20260904002019 78 232 0.0 0.0 0.00 0.60 0.60 85 1010.4
20260904001925 78 232 0.0 0.0 0.00 0.60 0.60 85 1010.4
20260904001825 78 232 0.0 0.0 0.00 0.60 0.60 85 1010.4
20260904001725 78 232 0.0 0.0 0.00 0.60 0.60 85 1010.4
20260904001624 78 232 0.0 0.0 0.00 0.60 0.60 85 1010.4
20260904001525 78 232 0.0 0.0 0.00 0.60 0.60 85 1010.3
20260904001519 78 232 0.0 0.0 0.00 0.60 0.60 85 1010.3
20260904001425 78 232 0.0 0.0 0.00 0.60 0.60 85 1010.3
20260904001323 78 232 0.0 0.0 0.00 0.60 0.60 84 1010.3
20260904001305 78 232 0.0 0.0 0.00 0.60 0.60 84 1010.3
20260904001259 78 232 0.0 0.0 0.00 0.60 0.60 84 1010.2
20260904001146 78 232 0.0 0.0 0.00 0.60 0.60 84 1010.3
20260904001029 78 232 0.0 0.0 0.00 0.60 0.60 84 1010.3
20260904001019 78 232 0.0 0.0 0.00 0.60 0.60 84 1010.3
20260904000819 78 232 0.0 0.0 0.00 0.60 0.60 84 1010.3
20260904000718 78 232 0.0 0.0 0.00 0.60 0.60 84 1010.3
20260904000618 78 232 0.0 0.0 0.00 0.60 0.60 84 1010.3
20260904000519 78 232 0.0 0.0 0.00 0.60 0.60 84 1010.2
20260904000440 78 232 0.0 0.0 0.00 0.60 0.60 84 1010.2
20260904000418 78 232 0.0 0.0 0.00 0.60 0.60 83 1010.2
20260904000318 78 232 0.0 0.0 0.00 0.60 0.60 83 1010.2
20260904000215 78 232 0.0 0.0 0.00 0.60 0.60 83 1010.2
20260904000203 79 232 0.0 0.0 0.00 0.60 0.60 82 1010.1
20260904000115 78 232 0.0 0.0 0.00 0.60 0.60 83 1010.2
20260904000048 79 232 0.0 0.0 0.00 0.60 0.60 83 1010.2
20260904000019 79 232 0.0 0.0 0.00 0.60 0.60 82 1010.1
20260903235914 79 232 0.0 0.0 0.00 0.60 0.60 82 1010.1
20260903235812 79 232 0.0 0.0 0.00 0.60 0.60 82 1010.1
20260903235712 79 232 0.0 0.0 0.00 0.60 0.60 82 1010.1
20260903235610 79 232 0.0 0.0 0.00 0.60 0.60 82 1010.0
20260903235519 79 232 0.0 0.0 0.00 0.60 0.60 82 1010.1
20260903235510 79 232 0.0 0.0 0.00 0.60 0.60 82 1010.1
20260903235410 79 232 0.0 0.0 0.00 0.60 0.60 82 1010.1
20260903235310 79 232 0.0 0.0 0.00 0.60 0.60 81 1010.1
20260903235209 79 232 0.0 0.0 0.00 0.60 0.60 81 1010.2
20260903235108 79 232 0.0 0.0 0.00 0.60 0.60 81 1010.1
20260903235019 79 232 0.0 0.0 0.00 0.60 0.60 81 1010.1
20260903235008 79 232 0.0 0.0 0.00 0.60 0.60 81 1010.1
20260903234939 79 232 0.0 0.0 0.00 0.60 0.60 81 1010.1
20260903234906 79 232 0.0 0.0 0.00 0.60 0.60 81 1010.1
20260903234806 80 232 0.0 0.0 0.00 0.60 0.60 81 1010.1
20260903234720 80 232 0.0 0.0 0.00 0.60 0.60 81 1010.1
20260903234715 80 232 0.0 0.0 0.00 0.60 0.60 81 1010.1
20260903234519 80 232 0.0 0.0 0.00 0.60 0.60 80 1010.1
20260903234506 80 232 0.0 0.0 0.00 0.60 0.60 80 1010.1
20260903234437 80 232 0.0 0.0 0.00 0.60 0.60 80 1010.1
20260903234405 80 232 0.0 0.0 0.00 0.60 0.60 80 1010.2
20260903234305 80 232 0.0 0.0 0.00 0.60 0.60 81 1010.3
20260903234204 80 232 0.0 0.0 0.00 0.60 0.60 81 1010.3
20260903234152 80 232 0.0 0.0 0.00 0.60 0.60 81 1010.4
20260903234049 81 232 0.0 0.0 0.00 0.60 0.60 80 1010.3
20260903234030 80 232 0.0 0.0 0.00 0.60 0.60 80 1010.3
20260903233810 81 232 0.0 0.0 0.00 0.60 0.60 80 1010.4
20260903233616 81 232 0.0 0.0 0.00 0.60 0.60 80 1010.4
20260903233610 81 232 0.0 0.0 0.00 0.60 0.60 80 1010.4
20260903233519 81 232 0.0 0.0 0.00 0.60 0.60 80 1010.4
20260903233435 81 232 0.0 0.0 0.00 0.60 0.60 80 1010.4
20260903233401 81 232 0.0 0.0 0.00 0.60 0.60 80 1010.4
20260903233300 81 232 0.0 0.0 0.00 0.60 0.60 80 1010.4
20260903233200 81 232 0.0 0.0 0.00 0.60 0.60 80 1010.4
20260903233059 81 232 0.0 0.0 0.00 0.60 0.60 80 1010.4
20260903233034 82 232 0.0 0.0 0.00 0.60 0.60 80 1010.4
20260903232933 82 232 0.0 0.0 0.00 0.60 0.60 80 1010.4
20260903232858 82 232 0.0 0.0 0.00 0.60 0.60 79 1010.5
20260903232758 82 232 0.0 0.0 0.00 0.60 0.60 79 1010.4
20260903232702 82 232 0.0 0.0 0.00 0.60 0.60 79 1010.4
20260903232658 82 232 0.0 0.0 0.00 0.60 0.60 79 1010.4
20260903232557 82 232 0.0 0.0 0.00 0.60 0.60 79 1010.4
20260903232539 82 232 0.0 0.0 0.00 0.60 0.60 79 1010.4
20260903232519 82 232 0.0 0.0 0.00 0.60 0.60 79 1010.4
20260903232356 82 232 0.0 0.0 0.00 0.60 0.60 79 1010.3
20260903232255 82 232 0.0 0.0 0.00 0.60 0.60 79 1010.3
20260903232157 82 232 0.0 0.0 0.00 0.60 0.60 78 1010.3
20260903232150 82 232 0.0 0.0 0.00 0.60 0.60 78 1010.4
20260903232055 82 232 0.0 0.0 0.00 0.60 0.60 78 1010.4
20260903232038 82 232 0.0 0.0 0.00 0.60 0.60 78 1010.4
20260903232019 82 232 0.0 0.0 0.00 0.60 0.60 78 1010.3
20260903231853 82 232 0.0 0.0 0.00 0.60 0.60 77 1010.4
20260903231753 82 232 0.0 0.0 0.00 0.60 0.60 77 1010.4
20260903231653 83 232 0.0 0.0 0.00 0.60 0.60 77 1010.4
20260903231552 83 232 0.0 0.0 0.00 0.60 0.60 77 1010.4
20260903231519 83 232 0.0 0.0 0.00 0.60 0.60 77 1010.3
20260903231430 83 232 0.0 0.0 0.00 0.60 0.60 76 1010.4
20260903231351 83 232 0.0 0.0 0.00 0.60 0.60 76 1010.3
20260903231251 83 232 0.0 0.0 0.00 0.60 0.60 76 1010.3
20260903231153 83 232 0.0 0.0 0.00 0.60 0.60 76 1010.3
20260903231146 83 232 0.0 0.0 0.00 0.60 0.60 76 1010.3
20260903231051 83 232 0.0 0.0 0.00 0.60 0.60 76 1010.3
20260903231035 83 232 0.0 0.0 0.00 0.60 0.60 76 1010.3
20260903230848 83 232 0.0 0.0 0.00 0.60 0.60 75 1010.4
20260903230748 83 232 0.0 0.0 0.00 0.60 0.60 75 1010.3
20260903230648 83 232 0.0 0.0 0.00 0.60 0.60 74 1010.4
20260903230547 84 232 0.0 0.0 0.00 0.60 0.60 74 1010.5
20260903230519 84 232 0.0 0.0 0.00 0.60 0.60 74 1010.3
20260903230427 84 232 0.0 0.0 0.00 0.60 0.60 74 1010.4
20260903230408 84 232 0.0 0.0 0.00 0.60 0.60 74 1010.4
20260903230254 84 232 0.0 0.0 0.00 0.60 0.60 74 1010.3
20260903230058 84 232 0.0 0.0 0.00 0.60 0.60 73 1010.1
20260903230052 84 232 0.0 0.0 0.00 0.60 0.60 73 1010.2
20260903230019 84 232 0.0 0.0 0.00 0.60 0.60 73 1010.0
20260903225928 84 232 0.0 0.0 0.00 0.60 0.60 72 1010.1
20260903225842 84 232 0.0 0.0 0.00 0.60 0.60 72 1010.1
20260903225741 84 232 0.0 0.0 0.00 0.60 0.60 72 1010.1
20260903225652 85 232 0.0 0.0 0.00 0.60 0.60 71 1010.1
20260903225641 85 232 0.0 0.0 0.00 0.60 0.60 72 1010.1
20260903225543 85 232 0.0 0.0 0.00 0.60 0.60 71 1010.1
20260903225534 85 232 0.0 0.0 0.00 0.60 0.60 71 1010.1
20260903225519 85 232 0.0 0.0 0.00 0.60 0.60 71 1010.0
20260903225338 85 232 0.0 0.0 0.00 0.60 0.60 71 1010.1
20260903225237 85 232 0.0 0.0 0.00 0.60 0.60 70 1010.1
20260903225149 86 232 0.0 0.0 0.00 0.60 0.60 70 1010.1
20260903225145 85 232 0.0 0.0 0.00 0.60 0.60 71 1010.1
20260903225019 86 232 0.0 0.0 0.00 0.60 0.60 70 1010.0
20260903224927 86 232 0.0 0.0 0.00 0.60 0.60 70 1010.1
20260903224834 86 232 0.0 0.0 0.00 0.60 0.60 70 1010.1
20260903224733 86 232 0.0 0.0 0.00 0.60 0.60 69 1010.2
20260903224633 86 232 0.0 0.0 0.00 0.60 0.60 69 1010.2
20260903224532 86 232 0.0 0.0 0.00 0.60 0.60 68 1010.2
20260903224519 86 232 0.0 0.0 0.00 0.60 0.60 68 1010.1
20260903224427 86 232 0.0 0.0 0.00 0.60 0.60 69 1010.2
20260903224331 87 232 0.0 0.0 0.00 0.60 0.60 68 1010.2
20260903224229 87 232 0.0 0.0 0.00 0.60 0.60 67 1010.2
20260903224129 87 232 0.0 0.0 0.00 0.60 0.60 67 1010.2
20260903224029 87 232 0.0 0.0 0.00 0.60 0.60 67 1010.2
20260903224019 87 232 0.0 0.0 0.00 0.60 0.60 67 1010.1
20260903223928 87 232 0.0 0.0 0.00 0.60 0.60 67 1010.2
20260903223826 87 232 0.0 0.0 0.00 0.60 0.60 66 1010.2
20260903223726 87 288 0.0 0.0 0.00 0.60 0.60 67 1010.0
20260903223624 87 280 0.0 0.0 0.00 0.60 0.60 67 1010.0
20260903223552 87 280 0.0 0.0 0.00 0.60 0.60 67 1009.9
20260903223534 87 280 0.0 0.0 0.00 0.60 0.60 67 1009.7
20260903223433 87 280 0.0 0.0 0.00 0.60 0.60 67 1009.8
20260903223234 87 280 0.0 0.0 0.00 0.60 0.60 66 1009.9
20260903223230 87 280 0.0 0.0 0.00 0.60 0.60 67 1009.9
20260903223034 87 280 0.0 0.0 0.00 0.60 0.60 67 1009.9
20260903223025 87 280 0.0 0.0 0.00 0.60 0.60 67 1009.9
20260903223019 87 280 0.0 0.0 0.00 0.60 0.60 67 1009.8
20260903222833 87 280 0.0 0.0 0.00 0.60 0.60 67 1009.9
20260903222828 87 280 0.0 0.0 0.00 0.60 0.60 67 1009.9
20260903222632 87 280 0.0 0.0 0.00 0.60 0.60 66 1009.8
20260903222627 87 280 0.0 0.0 0.00 0.60 0.60 67 1009.8
20260903222519 87 280 0.0 0.0 0.00 0.60 0.60 66 1009.8
20260903222417 87 280 0.0 0.0 0.00 0.60 0.60 66 1009.9
20260903222316 87 280 0.0 0.0 0.00 0.60 0.60 66 1010.0
20260903222216 87 280 0.0 0.0 0.00 0.60 0.60 66 1010.0
20260903222129 87 290 0.0 0.0 0.00 0.60 0.60 66 1010.0
20260903222124 87 280 0.0 0.0 0.00 0.60 0.60 66 1010.0
20260903222019 87 294 0.0 0.0 0.00 0.60 0.60 66 1009.9
20260903221914 87 294 0.0 0.0 0.00 0.60 0.60 66 1010.0
20260903221814 87 294 0.0 0.0 0.00 0.60 0.60 66 1010.0
20260903221714 87 294 0.0 0.0 0.00 0.60 0.60 66 1010.0
20260903221613 87 294 0.0 0.0 0.00 0.60 0.60 67 1010.0
20260903221534 87 294 0.0 0.0 0.00 0.60 0.60 66 1009.9
20260903221513 87 294 0.0 0.0 0.00 0.60 0.60 66 1010.0
20260903221413 87 294 0.0 0.0 0.00 0.60 0.60 66 1010.0
20260903221312 87 294 0.0 0.0 0.00 0.60 0.60 66 1010.0
20260903221211 87 294 0.0 0.0 0.00 0.60 0.60 66 1010.0
20260903221149 87 295 0.0 0.0 0.00 0.60 0.60 65 1010.1
20260903221145 87 295 0.0 0.0 0.00 0.60 0.60 66 1010.0
20260903221140 87 294 0.0 0.0 0.00 0.60 0.60 66 1010.0
20260903221019 87 295 0.0 0.0 0.00 0.60 0.60 66 1010.0
20260903220910 87 295 0.0 0.0 0.00 0.60 0.60 65 1010.1
20260903220824 87 260 0.0 0.0 0.00 0.60 0.60 66 1010.0
20260903220819 87 237 0.0 0.0 0.00 0.60 0.60 66 1010.1
20260903220647 87 259 0.0 0.0 0.00 0.60 0.60 66 1010.0
20260903220642 87 260 0.0 0.0 0.00 0.60 0.60 66 1010.0
20260903220637 87 260 0.0 0.0 0.00 0.60 0.60 66 1010.0
20260903220519 87 260 0.0 0.0 0.00 0.60 0.60 66 1009.9
20260903220408 87 260 0.0 0.0 0.00 0.60 0.60 66 1010.0
20260903220308 87 259 0.0 0.0 0.00 0.60 0.60 66 1010.0
20260903220207 87 259 0.0 0.0 0.00 0.60 0.60 66 1010.0
20260903220107 87 259 0.0 0.0 0.00 0.60 0.60 66 1009.9
20260903220019 87 259 0.0 0.0 0.00 0.60 0.60 66 1009.8
20260903220007 87 259 0.0 0.0 0.00 0.60 0.60 66 1009.9
20260903215919 87 259 0.0 0.0 0.00 0.60 0.60 66 1009.9
20260903215904 87 259 0.0 0.0 0.00 0.60 0.60 66 1009.8
20260903215804 87 259 0.0 0.0 0.00 0.60 0.60 66 1009.8
20260903215703 87 259 0.0 0.0 0.00 0.60 0.60 66 1009.7
20260903215614 87 259 0.0 0.0 0.00 0.60 0.60 65 1009.7
20260903215609 87 259 0.0 0.0 0.00 0.60 0.60 65 1009.7
20260903215519 87 259 0.0 0.0 0.00 0.60 0.60 65 1009.6
20260903215417 87 259 0.0 0.0 0.00 0.60 0.60 65 1009.7
20260903215359 87 259 0.0 0.0 0.00 0.60 0.60 65 1009.7
20260903215259 87 259 0.0 0.0 0.00 0.60 0.60 65 1009.6
20260903215159 87 259 0.0 0.0 0.00 0.60 0.60 65 1009.6
20260903215057 87 259 0.0 0.0 0.00 0.60 0.60 65 1009.7
20260903215019 87 259 0.0 0.0 0.00 0.60 0.60 65 1009.6
20260903215017 87 259 0.0 0.0 0.00 0.60 0.60 64 1009.7
20260903215012 87 259 0.0 0.0 0.00 0.60 0.60 65 1009.7
20260903215004 87 259 0.0 0.0 0.00 0.60 0.60 64 1009.7
20260903214757 87 259 0.0 0.0 0.00 0.60 0.60 65 1009.8
20260903214654 87 259 0.0 0.0 0.00 0.60 0.60 65 1009.8
20260903214643 88 259 0.0 0.0 0.00 0.60 0.60 65 1009.7
20260903214554 88 259 0.0 0.0 0.00 0.60 0.60 65 1009.8
20260903214524 88 259 0.0 0.0 0.00 0.60 0.60 65 1009.7
20260903214519 88 259 0.0 0.0 0.00 0.60 0.60 65 1009.6
20260903214354 88 259 0.0 0.0 0.00 0.60 0.60 65 1009.7
20260903214253 88 259 0.0 0.0 0.00 0.60 0.60 64 1009.7
20260903214152 88 259 0.0 0.0 0.00 0.60 0.60 64 1009.6
20260903214141 88 257 0.0 0.0 0.00 0.60 0.60 64 1009.7
20260903214052 88 259 0.0 0.0 0.00 0.60 0.60 64 1009.7
20260903214022 88 259 0.0 0.0 0.00 0.60 0.60 64 1009.7
20260903214019 88 259 0.0 0.0 0.00 0.60 0.60 64 1009.6
20260903213850 88 257 0.0 0.0 0.00 0.60 0.60 64 1009.7
20260903213750 88 257 0.0 0.0 0.00 0.60 0.60 64 1009.7
20260903213650 88 257 0.0 0.0 0.00 0.60 0.60 64 1009.6
20260903213549 88 257 0.0 0.0 0.00 0.60 0.60 63 1009.6
20260903213520 88 257 0.0 0.0 0.00 0.60 0.60 63 1009.4
20260903213449 88 257 0.0 0.0 0.00 0.60 0.60 65 1009.5
20260903213412 88 257 0.0 0.0 0.00 0.60 0.60 65 1009.5
20260903213400 88 257 0.0 1.0 0.00 0.60 0.60 63 1009.4
20260903213355 88 257 0.0 0.0 0.00 0.60 0.60 64 1009.5
20260903213146 88 257 0.0 2.0 0.00 0.60 0.60 63 1009.4
20260903213045 88 257 0.0 2.0 0.00 0.60 0.60 63 1009.3
20260903213034 88 257 0.0 2.0 0.00 0.60 0.60 63 1009.2
20260903212945 88 257 0.0 2.0 0.00 0.60 0.60 62 1009.3
20260903212912 88 257 0.0 2.0 0.00 0.60 0.60 62 1009.3
20260903212841 88 257 1.0 3.0 0.00 0.60 0.60 62 1009.3
20260903212742 88 257 1.0 6.0 0.00 0.60 0.60 62 1009.4
20260903212656 88 257 1.0 6.0 0.00 0.60 0.60 62 1009.4
20260903212650 88 257 1.0 6.0 0.00 0.60 0.60 62 1009.4
20260903212519 88 257 0.0 6.0 0.00 0.60 0.60 63 1009.4
20260903212511 89 257 1.0 6.0 0.00 0.60 0.60 62 1009.5
20260903212505 88 257 1.0 6.0 0.00 0.60 0.60 63 1009.5
20260903212457 89 257 1.0 6.0 0.00 0.60 0.60 63 1009.5
20260903212451 89 257 1.0 6.0 0.00 0.60 0.60 63 1009.5
20260903212228 89 257 1.0 6.0 0.00 0.60 0.60 62 1009.4
20260903212019 89 257 1.0 6.0 0.00 0.60 0.60 62 1009.4
20260903212007 89 259 1.0 3.0 0.00 0.60 0.60 62 1009.6
20260903212001 89 257 1.0 6.0 0.00 0.60 0.60 62 1009.5
20260903211953 89 257 1.0 6.0 0.00 0.60 0.60 61 1009.5
20260903211636 89 259 1.0 3.0 0.00 0.60 0.60 62 1009.6
20260903211536 89 259 1.0 6.0 0.00 0.60 0.60 62 1009.6
20260903211520 89 259 2.0 6.0 0.00 0.60 0.60 62 1009.5
20260903211435 89 266 1.0 6.0 0.00 0.60 0.60 62 1009.6
20260903211407 89 266 1.0 6.0 0.00 0.60 0.60 61 1009.6
20260903211335 89 266 1.0 6.0 0.00 0.60 0.60 61 1009.6
20260903211244 89 275 1.0 6.0 0.00 0.60 0.60 62 1009.6
20260903211235 89 275 1.0 6.0 0.00 0.60 0.60 62 1009.6
20260903211033 89 275 1.0 6.0 0.00 0.60 0.60 61 1009.6
20260903211019 89 275 1.0 6.0 0.00 0.60 0.60 61 1009.6
20260903211015 89 275 1.0 6.0 0.00 0.60 0.60 61 1009.7
20260903210846 89 275 2.0 6.0 0.00 0.60 0.60 60 1009.7
20260903210840 89 275 1.0 6.0 0.00 0.60 0.60 62 1009.7
20260903210631 89 278 1.0 6.0 0.00 0.60 0.60 62 1009.7
20260903210529 89 255 2.0 5.0 0.00 0.60 0.60 62 1009.7
20260903210519 89 254 1.0 6.0 0.00 0.60 0.60 62 1009.6
20260903210407 89 254 2.0 6.0 0.00 0.60 0.60 62 1009.7
20260903210329 89 254 2.0 6.0 0.00 0.60 0.60 62 1009.7
20260903210229 89 254 2.0 6.0 0.00 0.60 0.60 61 1009.7
20260903210217 89 254 3.0 7.0 0.00 0.60 0.60 61 1009.7
20260903210213 89 254 3.0 7.0 0.00 0.60 0.60 61 1009.8
20260903210209 89 254 3.0 7.0 0.00 0.60 0.60 60 1009.8
20260903210202 89 254 2.0 6.0 0.00 0.60 0.60 60 1009.7
20260903210044 89 254 3.0 7.0 0.00 0.60 0.60 61 1009.8
20260903210019 89 254 1.0 6.0 0.00 0.60 0.60 61 1009.7
20260903205729 89 242 3.0 7.0 0.00 0.60 0.60 60 1009.8
20260903205627 89 236 3.0 7.0 0.00 0.60 0.60 59 1009.8
20260903205534 89 282 3.0 6.0 0.00 0.60 0.60 59 1009.6
20260903205527 89 261 3.0 7.0 0.00 0.60 0.60 59 1009.8
20260903205426 89 315 3.0 7.0 0.00 0.60 0.60 60 1009.8
20260903205405 89 268 3.0 7.0 0.00 0.60 0.60 60 1009.8
20260903205326 89 268 3.0 7.0 0.00 0.60 0.60 60 1009.8
20260903205226 89 281 2.0 7.0 0.00 0.60 0.60 60 1009.8
20260903205125 89 284 2.0 7.0 0.00 0.60 0.60 60 1009.8
20260903205024 89 278 2.0 6.0 0.00 0.60 0.60 60 1009.9
20260903205019 89 278 3.0 6.0 0.00 0.60 0.60 60 1009.6
20260903204924 89 279 2.0 6.0 0.00 0.60 0.60 61 1009.8
20260903204905 89 280 2.0 6.0 0.00 0.60 0.60 61 1009.8
20260903204837 89 308 2.0 5.0 0.00 0.60 0.60 60 1009.9
20260903204832 89 163 2.0 5.0 0.00 0.60 0.60 60 1009.8
20260903204621 89 311 2.0 5.0 0.00 0.60 0.60 60 1009.9
20260903204521 89 257 1.0 4.0 0.00 0.60 0.60 61 1009.8
20260903204519 89 259 3.0 4.0 0.00 0.60 0.60 61 1009.7
20260903204419 89 229 1.0 4.0 0.00 0.60 0.60 60 1009.9
20260903204405 89 229 1.0 4.0 0.00 0.60 0.60 60 1009.8
20260903204318 89 229 2.0 4.0 0.00 0.60 0.60 60 1009.8
20260903204218 89 229 2.0 4.0 0.00 0.60 0.60 60 1009.9
20260903204140 89 231 2.0 6.0 0.00 0.60 0.60 59 1009.9
20260903204034 89 252 1.0 6.0 0.00 0.60 0.60 60 1009.7
20260903204026 89 252 2.0 6.0 0.00 0.60 0.60 60 1009.9
20260903203911 89 251 2.0 6.0 0.00 0.60 0.60 60 1009.9
20260903203903 89 256 2.0 6.0 0.00 0.60 0.60 61 1009.9
20260903203752 89 259 2.0 6.0 0.00 0.60 0.60 61 1009.9
20260903203746 89 258 2.0 6.0 0.00 0.60 0.60 61 1009.8
20260903203741 89 254 2.0 6.0 0.00 0.60 0.60 60 1009.8
20260903203519 89 259 1.0 6.0 0.00 0.60 0.60 60 1009.6
20260903203404 89 233 2.0 6.0 0.00 0.60 0.60 61 1009.8
20260903203313 89 260 2.0 6.0 0.00 0.60 0.60 60 1009.9
20260903203212 89 260 2.0 6.0 0.00 0.60 0.60 60 1009.9
20260903203112 89 263 2.0 6.0 0.00 0.60 0.60 61 1009.9
20260903203019 89 267 2.0 4.0 0.00 0.60 0.60 60 1009.7
20260903203012 89 267 2.0 4.0 0.00 0.60 0.60 60 1009.9
20260903202904 89 267 2.0 4.0 0.00 0.60 0.60 60 1009.9
20260903202810 89 268 2.0 6.0 0.00 0.60 0.60 61 1009.9
20260903202710 89 269 2.0 6.0 0.00 0.60 0.60 62 1009.9
20260903202609 89 213 2.0 6.0 0.00 0.60 0.60 63 1009.8
20260903202534 89 275 2.0 6.0 0.00 0.60 0.60 62 1009.7
20260903202525 89 280 1.0 6.0 0.00 0.60 0.60 64 1009.8
20260903202520 89 282 2.0 6.0 0.00 0.60 0.60 62 1009.8
20260903202404 89 280 1.0 6.0 0.00 0.60 0.60 64 1009.8
20260903202321 89 288 1.0 6.0 0.00 0.60 0.60 64 1009.9
20260903202316 89 280 1.0 6.0 0.00 0.60 0.60 63 1009.8
20260903202120 89 291 1.0 6.0 0.00 0.60 0.60 63 1009.9
20260903202115 89 291 1.0 6.0 0.00 0.60 0.60 63 1009.9
20260903202019 89 291 1.0 6.0 0.00 0.60 0.60 63 1009.8
20260903201906 89 244 1.0 6.0 0.00 0.60 0.60 63 1009.9
20260903201803 89 280 1.0 4.0 0.00 0.60 0.60 63 1009.9
20260903201717 89 280 1.0 4.0 0.00 0.60 0.60 61 1010.0
20260903201712 89 280 1.0 4.0 0.00 0.60 0.60 62 1010.0
20260903201549 89 282 2.0 4.0 0.00 0.60 0.60 61 1009.8
20260903201502 89 282 1.0 4.0 0.00 0.60 0.60 61 1009.9
20260903201407 89 282 1.0 4.0 0.00 0.60 0.60 61 1009.9
20260903201402 89 282 1.0 4.0 0.00 0.60 0.60 61 1009.9
20260903201300 89 282 1.0 8.0 0.00 0.60 0.60 61 1009.9
20260903201200 89 246 1.0 8.0 0.00 0.60 0.60 62 1010.0
20260903201147 89 243 1.0 8.0 0.00 0.60 0.60 61 1010.0
20260903201143 89 243 1.0 8.0 0.00 0.60 0.60 62 1010.0
20260903201138 89 243 1.0 8.0 0.00 0.60 0.60 61 1010.0
20260903201132 89 243 1.0 8.0 0.00 0.60 0.60 62 1010.1
20260903201020 89 243 1.0 8.0 0.00 0.60 0.60 62 1009.8
20260903200908 89 243 1.0 8.0 0.00 0.60 0.60 61 1010.0
20260903200659 89 244 1.0 8.0 0.00 0.60 0.60 61 1010.0
20260903200557 89 243 1.0 8.0 0.00 0.60 0.60 62 1010.1
20260903200519 89 243 0.0 8.0 0.00 0.60 0.60 61 1009.8
20260903200457 89 243 1.0 8.0 0.00 0.60 0.60 61 1010.0
20260903200403 89 242 1.0 8.0 0.00 0.60 0.60 61 1010.0
20260903200356 89 242 1.0 8.0 0.00 0.60 0.60 61 1010.0
20260903200256 89 246 1.0 3.0 0.00 0.60 0.60 62 1010.0
20260903200156 89 245 1.0 3.0 0.00 0.60 0.60 62 1010.0
20260903200107 89 245 1.0 4.0 0.00 0.60 0.60 63 1010.0
20260903200034 89 245 2.0 4.0 0.00 0.60 0.60 63 1009.8
20260903195913 89 246 2.0 4.0 0.00 0.60 0.60 62 1009.9
20260903195902 89 246 1.0 4.0 0.00 0.60 0.60 62 1009.9
20260903195651 89 247 2.0 8.0 0.00 0.60 0.60 62 1010.0
20260903195616 89 221 2.0 8.0 0.00 0.60 0.60 61 1009.9
20260903195551 89 247 2.0 8.0 0.00 0.60 0.60 62 1010.0
20260903195519 89 221 0.0 8.0 0.00 0.60 0.60 62 1009.9
20260903195507 89 221 2.0 8.0 0.00 0.60 0.60 62 1010.0
20260903195351 89 221 2.0 8.0 0.00 0.60 0.60 61 1009.9
20260903195251 89 221 3.0 8.0 0.00 0.60 0.60 60 1010.0
20260903195150 89 212 2.0 8.0 0.00 0.60 0.60 60 1010.0
20260903195050 89 265 3.0 8.0 0.00 0.60 0.60 60 1010.0
20260903195019 89 182 4.0 11.0 0.00 0.60 0.60 61 1009.9
20260903195003 89 233 3.0 11.0 0.00 0.60 0.60 60 1010.0
20260903194955 89 232 3.0 11.0 0.00 0.60 0.60 60 1010.1
20260903194802 89 248 2.0 11.0 0.00 0.60 0.60 59 1010.1
20260903194756 89 233 3.0 11.0 0.00 0.60 0.60 60 1010.1
20260903194549 89 218 2.0 11.0 0.00 0.60 0.60 60 1010.0
20260903194547 89 220 2.0 11.0 0.00 0.60 0.60 60 1010.1
20260903194446 89 219 2.0 11.0 0.00 0.60 0.60 60 1010.2
20260903194357 89 253 2.0 11.0 0.00 0.60 0.60 60 1010.2
20260903194346 89 253 2.0 11.0 0.00 0.60 0.60 59 1010.2
20260903194246 89 258 1.0 11.0 0.00 0.60 0.60 60 1010.2
20260903194144 89 298 1.0 11.0 0.00 0.60 0.60 60 1010.2
20260903194058 89 251 0.0 8.0 0.00 0.60 0.60 60 1010.2
20260903194053 89 251 1.0 11.0 0.00 0.60 0.60 59 1010.2
20260903194019 90 271 4.0 8.0 0.00 0.60 0.60 60 1010.1
20260903193857 90 263 0.0 6.0 0.00 0.60 0.60 60 1010.3
20260903193843 89 285 0.0 4.0 0.00 0.60 0.60 59 1010.3
20260903193756 90 302 0.0 2.0 0.00 0.60 0.60 59 1010.3
20260903193751 90 302 0.0 2.0 0.00 0.60 0.60 59 1010.3
20260903193549 90 223 0.0 0.0 0.00 0.60 0.60 58 1010.2
20260903193541 90 307 0.0 0.0 0.00 0.60 0.60 59 1010.3
20260903193438 90 223 0.0 0.0 0.00 0.60 0.60 58 1010.3
20260903193357 90 234 0.0 0.0 0.00 0.60 0.60 60 1010.3
20260903193338 90 223 0.0 0.0 0.00 0.60 0.60 61 1010.3
20260903193238 90 229 0.0 0.0 0.00 0.60 0.60 60 1010.3
20260903193137 90 269 0.0 0.0 0.00 0.60 0.60 60 1010.3
20260903193037 90 283 0.0 0.0 0.00 0.60 0.60 60 1010.3
20260903193019 90 284 0.0 0.0 0.00 0.60 0.60 59 1010.2
20260903192936 90 284 0.0 0.0 0.00 0.60 0.60 59 1010.3
20260903192856 90 286 0.0 0.0 0.00 0.60 0.60 59 1010.4
20260903192836 90 291 0.0 0.0 0.00 0.60 0.60 59 1010.4
20260903192735 90 250 0.0 0.0 0.00 0.60 0.60 59 1010.3
20260903192635 90 172 0.0 0.0 0.00 0.60 0.60 59 1010.4
20260903192618 90 220 0.0 0.0 0.00 0.60 0.60 59 1010.5
20260903192535 90 168 0.0 0.0 0.00 0.60 0.60 58 1010.4
20260903192519 90 246 0.0 0.0 0.00 0.60 0.60 60 1010.4
20260903192503 90 244 0.0 0.0 0.00 0.60 0.60 60 1010.5
20260903192334 90 220 0.0 0.0 0.00 0.60 0.60 59 1010.5
20260903192234 90 184 0.0 0.0 0.00 0.60 0.60 60 1010.5
20260903192133 90 266 0.0 0.0 0.00 0.60 0.60 60 1010.5
20260903192033 90 272 0.0 0.0 0.00 0.60 0.60 60 1010.5
20260903192019 90 201 0.0 0.0 0.00 0.60 0.60 60 1010.3
20260903191932 90 200 0.0 0.0 0.00 0.60 0.60 58 1010.4
20260903191854 90 234 0.0 0.0 0.00 0.60 0.60 59 1010.5
20260903191832 90 245 0.0 0.0 0.00 0.60 0.60 59 1010.5
20260903191732 90 270 0.0 0.0 0.00 0.60 0.60 58 1010.5
20260903191632 90 281 0.0 0.0 0.00 0.60 0.60 60 1010.6
20260903191545 90 289 0.0 0.0 0.00 0.60 0.60 58 1010.6
20260903191540 90 297 0.0 0.0 0.00 0.60 0.60 59 1010.6
20260903191519 90 319 0.0 0.0 0.00 0.60 0.60 59 1010.5
20260903191354 90 243 0.0 0.0 0.00 0.60 0.60 60 1010.6
20260903191330 90 286 0.0 0.0 0.00 0.60 0.60 60 1010.6
20260903191229 90 292 0.0 0.0 0.00 0.60 0.60 59 1010.7
20260903191129 90 244 0.0 0.0 0.00 0.60 0.60 59 1010.7
20260903191029 90 256 0.0 0.0 0.00 0.60 0.60 58 1010.7
20260903191019 90 257 0.0 0.0 0.00 0.60 0.60 58 1010.6
20260903190927 90 234 0.0 0.0 0.00 0.60 0.60 61 1010.7
20260903190853 90 228 0.0 0.0 0.00 0.60 0.60 60 1010.8
20260903190827 90 229 0.0 0.0 0.00 0.60 0.60 60 1010.8
20260903190727 90 248 0.0 0.0 0.00 0.60 0.60 60 1010.8
20260903190626 90 244 0.0 0.0 0.00 0.60 0.60 58 1010.8
20260903190525 90 192 0.0 0.0 0.00 0.60 0.60 60 1010.8
20260903190519 90 192 0.0 0.0 0.00 0.60 0.60 60 1010.7
20260903190426 90 192 0.0 0.0 0.00 0.60 0.60 61 1010.8
20260903190351 90 240 0.0 0.0 0.00 0.60 0.60 61 1010.8
20260903190325 90 163 0.0 0.0 0.00 0.60 0.60 60 1010.8
20260903190225 90 162 0.0 0.0 0.00 0.60 0.60 61 1010.8
20260903190125 89 190 0.0 0.0 0.00 0.60 0.60 59 1010.9
20260903190024 89 176 0.0 0.0 0.00 0.60 0.60 60 1010.8
20260903190019 90 196 0.0 0.0 0.00 0.60 0.60 60 1010.7
20260903185942 89 298 0.0 0.0 0.00 0.60 0.60 60 1010.8
20260903185937 89 196 0.0 0.0 0.00 0.60 0.60 60 1010.8
20260903185929 89 281 0.0 0.0 0.00 0.60 0.60 60 1010.8
20260903185720 89 259 0.0 0.0 0.00 0.60 0.60 61 1010.8
20260903185620 89 265 0.0 0.0 0.00 0.60 0.60 61 1010.8
20260903185609 89 170 0.0 0.0 0.00 0.60 0.60 61 1010.8
20260903185520 89 265 0.0 0.0 0.00 0.60 0.60 60 1010.8
20260903185458 89 194 0.0 0.0 0.00 0.60 0.60 61 1010.7
20260903185319 89 170 0.0 0.0 0.00 0.60 0.60 60 1010.8
20260903185217 89 221 0.0 0.0 0.00 0.60 0.60 61 1010.7
20260903185131 89 202 0.0 0.0 0.00 0.60 0.60 60 1010.7
20260903185126 89 186 0.0 0.0 0.00 0.60 0.60 61 1010.7
20260903185019 89 211 0.0 0.0 0.00 0.60 0.60 60 1010.7
20260903184916 89 269 0.0 0.0 0.00 0.60 0.60 59 1010.8
20260903184850 89 275 0.0 0.0 0.00 0.60 0.60 59 1010.7
20260903184816 89 274 0.0 0.0 0.00 0.60 0.60 60 1010.7
20260903184715 89 279 0.0 0.0 0.00 0.60 0.60 60 1010.9
20260903184614 89 311 0.0 0.0 0.00 0.60 0.60 59 1010.9
20260903184519 90 265 0.0 0.0 0.00 0.60 0.60 59 1010.9
20260903184514 90 319 0.0 0.0 0.00 0.60 0.60 59 1010.9
20260903184433 90 218 0.0 0.0 0.00 0.60 0.60 58 1011.0
20260903184427 90 327 0.0 0.0 0.00 0.60 0.60 59 1011.0
20260903184421 90 268 0.0 0.0 0.00 0.60 0.60 59 1011.0
20260903184213 90 258 0.0 0.0 0.00 0.60 0.60 61 1011.0
20260903184112 90 192 0.0 0.0 0.00 0.60 0.60 61 1011.0
20260903184026 90 134 0.0 0.0 0.00 0.60 0.60 60 1011.1
20260903184021 90 246 0.0 0.0 0.00 0.60 0.60 60 1011.1
20260903184019 90 250 0.0 0.0 0.00 0.60 0.60 60 1011.0
20260903183849 90 130 0.0 0.0 0.00 0.60 0.60 61 1011.1
20260903183810 90 261 0.0 0.0 0.00 0.60 0.60 61 1011.1
20260903183711 90 321 0.0 0.0 0.00 0.60 0.60 61 1011.0
20260903183613 90 286 0.0 0.0 0.00 0.60 0.60 61 1011.1
20260903183607 90 268 0.0 0.0 0.00 0.60 0.60 62 1011.1
20260903183600 90 292 0.0 0.0 0.00 0.60 0.60 60 1011.1
20260903183534 90 292 0.0 0.0 0.00 0.60 0.60 60 1011.0
20260903183447 90 205 0.0 0.0 0.00 0.60 0.60 62 1011.1
20260903183440 90 329 0.0 0.0 0.00 0.60 0.60 63 1011.1
20260903183329 90 267 0.0 0.0 0.00 0.60 0.60 63 1011.1
20260903183019 90 273 0.0 0.0 0.00 0.60 0.60 62 1010.9
20260903183010 89 272 0.0 0.0 0.00 0.60 0.60 62 1011.0
20260903182955 89 284 0.0 0.0 0.00 0.60 0.60 63 1011.0
20260903182809 89 216 0.0 0.0 0.00 0.60 0.60 63 1011.0
20260903182706 89 268 0.0 0.0 0.00 0.60 0.60 63 1010.9
20260903182607 89 265 0.0 0.0 0.00 0.60 0.60 62 1011.0
20260903182519 89 268 0.0 0.0 0.00 0.60 0.60 62 1010.8
20260903182507 89 268 0.0 0.0 0.00 0.60 0.60 62 1011.0
20260903182406 89 254 0.0 0.0 0.00 0.60 0.60 62 1011.0
20260903182346 89 254 0.0 0.0 0.00 0.60 0.60 62 1010.9
20260903182307 89 207 0.0 0.0 0.00 0.60 0.60 62 1010.9
20260903182205 89 286 0.0 0.0 0.00 0.60 0.60 63 1010.9
20260903182119 89 266 0.0 0.0 0.00 0.60 0.60 62 1010.9
20260903182115 89 286 0.0 0.0 0.00 0.60 0.60 62 1010.9
20260903182019 89 273 0.0 0.0 0.00 0.60 0.60 62 1010.8
20260903181904 89 232 0.0 0.0 0.00 0.60 0.60 62 1011.0
20260903181844 89 243 0.0 0.0 0.00 0.60 0.60 62 1011.0
20260903181804 89 241 0.0 0.0 0.00 0.60 0.60 63 1011.0
20260903181703 89 246 0.0 0.0 0.00 0.60 0.60 63 1011.0
20260903181608 89 196 0.0 0.0 0.00 0.60 0.60 62 1011.1
20260903181604 89 246 0.0 0.0 0.00 0.60 0.60 63 1011.0
20260903181556 89 296 0.0 0.0 0.00 0.60 0.60 65 1011.1
20260903181551 89 246 0.0 0.0 0.00 0.60 0.60 63 1011.1
20260903181519 89 246 0.0 0.0 0.00 0.60 0.60 63 1011.0
20260903181434 89 233 0.0 0.0 0.00 0.60 0.60 62 1011.1
20260903181214 89 289 0.0 0.0 0.00 0.60 0.60 63 1011.1
20260903181210 89 232 0.0 0.0 0.00 0.60 0.60 64 1011.1
20260903181019 89 309 0.0 0.0 0.00 0.60 0.60 64 1011.0
20260903181002 89 309 0.0 0.0 0.00 0.60 0.60 64 1011.1
20260903180949 89 289 0.0 0.0 0.00 0.60 0.60 63 1011.1
20260903180800 89 306 0.0 0.0 0.00 0.60 0.60 64 1011.2
20260903180718 89 277 0.0 0.0 0.00 0.60 0.60 65 1011.2
20260903180559 88 265 0.0 0.0 0.00 0.60 0.60 64 1011.2
20260903180519 88 254 0.0 0.0 0.00 0.60 0.60 64 1011.0
20260903180459 88 283 0.0 0.0 0.00 0.60 0.60 64 1011.1
20260903180448 88 233 0.0 0.0 0.00 0.60 0.60 65 1011.2
20260903180259 88 316 0.0 0.0 0.00 0.60 0.60 65 1011.2
20260903180159 88 248 0.0 0.0 0.00 0.60 0.60 64 1011.2
20260903180057 88 259 0.0 12.0 0.00 0.60 0.60 64 1011.2
20260903180019 88 238 0.0 12.0 0.00 0.60 0.60 63 1011.2
20260903175957 88 230 1.0 12.0 0.00 0.60 0.60 63 1011.3
20260903175856 88 296 1.0 12.0 0.00 0.60 0.60 63 1011.2
20260903175839 88 302 1.0 12.0 0.00 0.60 0.60 63 1011.2
20260903175808 88 306 1.0 12.0 0.00 0.60 0.60 63 1011.2
20260903175804 88 334 1.0 12.0 0.00 0.60 0.60 63 1011.2
20260903175553 88 311 2.0 12.0 0.00 0.60 0.60 63 1011.3
20260903175534 88 323 0.0 12.0 0.00 0.60 0.60 63 1011.2
20260903175453 88 350 2.0 12.0 0.00 0.60 0.60 63 1011.3
20260903175352 88 316 3.0 12.0 0.00 0.60 0.60 62 1011.3
20260903175339 88 327 3.0 12.0 0.00 0.60 0.60 62 1011.3
20260903175252 88 205 3.0 12.0 0.00 0.60 0.60 62 1011.3
20260903175152 88 277 3.0 12.0 0.00 0.60 0.60 64 1011.3
20260903175104 88 259 3.0 11.0 0.00 0.60 0.60 63 1011.3
20260903175100 88 259 3.0 11.0 0.00 0.60 0.60 64 1011.3
20260903175019 88 259 1.0 11.0 0.00 0.60 0.60 63 1011.2
20260903174850 88 264 3.0 10.0 0.00 0.60 0.60 64 1011.2
20260903174837 88 269 3.0 10.0 0.00 0.60 0.60 64 1011.2
20260903174803 88 269 3.0 10.0 0.00 0.60 0.60 62 1011.2
20260903174759 88 214 3.0 10.0 0.00 0.60 0.60 63 1011.2
20260903174609 88 300 3.0 10.0 0.00 0.60 0.60 62 1011.2
20260903174520 88 323 6.0 8.0 0.00 0.60 0.60 63 1011.1
20260903174456 88 296 3.0 9.0 0.00 0.60 0.60 63 1011.2
20260903174338 88 248 3.0 9.0 0.00 0.60 0.60 64 1011.2
20260903174247 88 248 3.0 9.0 0.00 0.60 0.60 64 1011.2
20260903174220 88 248 3.0 9.0 0.00 0.60 0.60 64 1011.3
20260903174108 88 254 3.0 9.0 0.00 0.60 0.60 65 1011.4
20260903174103 88 246 3.0 9.0 0.00 0.60 0.60 66 1011.3
20260903174019 88 267 6.0 8.0 0.00 0.60 0.60 64 1011.3
20260903173836 88 261 3.0 9.0 0.00 0.60 0.60 65 1011.4
20260903173743 88 278 3.0 9.0 0.00 0.60 0.60 63 1011.4
20260903173642 88 273 3.0 8.0 0.00 0.60 0.60 62 1011.4
20260903173542 88 307 3.0 8.0 0.00 0.61 0.60 62 1011.4
20260903173534 88 265 3.0 8.0 0.00 0.61 0.60 62 1011.3
20260903173457 88 242 2.0 8.0 0.00 0.61 0.60 63 1011.4
20260903173453 88 292 2.0 8.0 0.00 0.61 0.60 64 1011.4
20260903173337 88 242 2.0 8.0 0.00 0.61 0.60 63 1011.4
20260903173242 88 246 3.0 8.0 0.00 0.61 0.60 64 1011.4
20260903173141 88 296 3.0 8.0 0.00 0.61 0.60 62 1011.4
20260903173132 88 232 3.0 10.0 0.00 0.61 0.60 65 1011.5
20260903173040 88 207 3.0 8.0 0.00 0.61 0.60 65 1011.5
20260903173029 88 233 3.0 10.0 0.00 0.61 0.60 64 1011.5
20260903173020 88 238 2.0 10.0 0.00 0.61 0.60 65 1011.4
20260903172802 88 223 3.0 10.0 0.00 0.61 0.60 65 1011.5
20260903172757 88 200 3.0 10.0 0.00 0.61 0.60 65 1011.5
20260903172519 88 221 2.0 10.0 0.00 0.61 0.60 65 1011.4
20260903172453 88 238 3.0 10.0 0.00 0.61 0.60 65 1011.5
20260903172449 88 324 3.0 10.0 0.00 0.61 0.60 64 1011.5
20260903172333 88 238 3.0 10.0 0.00 0.61 0.60 65 1011.5
20260903172237 88 270 3.0 10.0 0.00 0.61 0.60 65 1011.5
20260903172217 88 248 3.0 9.0 0.00 0.61 0.60 65 1011.5
20260903172212 88 263 3.0 10.0 0.00 0.61 0.60 64 1011.5
20260903172058 88 321 3.0 10.0 0.00 0.61 0.60 65 1011.6
20260903172019 88 248 2.0 9.0 0.00 0.61 0.60 64 1011.4
20260903171836 88 287 3.0 10.0 0.00 0.61 0.60 66 1011.6
20260903171734 88 240 3.0 10.0 0.00 0.61 0.60 66 1011.6
20260903171634 87 240 3.0 10.0 0.00 0.61 0.60 65 1011.7
20260903171533 87 258 3.0 10.0 0.00 0.61 0.60 64 1011.7
20260903171519 87 258 3.0 9.0 0.00 0.61 0.60 65 1011.6
20260903171433 87 242 3.0 10.0 0.00 0.61 0.60 65 1011.7
20260903171333 87 242 3.0 10.0 0.00 0.61 0.60 64 1011.7
20260903171231 87 237 3.0 10.0 0.00 0.61 0.60 64 1011.7
20260903171131 87 250 3.0 10.0 0.00 0.61 0.60 64 1011.7
20260903171030 87 294 2.0 10.0 0.00 0.61 0.60 65 1011.7
20260903171019 87 233 1.0 8.0 0.00 0.61 0.60 65 1011.6
20260903170930 87 233 2.0 10.0 0.00 0.61 0.60 65 1011.7
20260903170834 87 269 2.0 10.0 0.00 0.61 0.60 66 1011.7
20260903170829 87 264 2.0 10.0 0.00 0.61 0.60 65 1011.7
20260903170728 87 250 2.0 10.0 0.00 0.61 0.60 68 1011.7
20260903170628 87 254 2.0 10.0 0.00 0.61 0.60 67 1011.8
20260903170528 87 269 2.0 10.0 0.00 0.61 0.60 66 1011.8
20260903170519 87 231 3.0 8.0 0.00 0.61 0.60 68 1011.6
20260903170428 87 241 2.0 10.0 0.00 0.61 0.60 68 1011.7
20260903170327 86 233 3.0 10.0 0.00 0.61 0.60 67 1011.7
20260903170226 86 233 3.0 10.0 0.00 0.61 0.60 64 1011.7
20260903170125 86 213 3.0 10.0 0.00 0.61 0.60 66 1011.7
20260903170025 87 232 3.0 10.0 0.00 0.61 0.60 65 1011.6
20260903170020 87 232 2.0 8.0 0.00 0.61 0.60 65 1011.5
20260903165925 87 244 3.0 10.0 0.00 0.61 0.60 65 1011.6
20260903165826 87 246 3.0 8.0 0.00 0.61 0.60 65 1011.6
20260903165726 87 246 3.0 8.0 0.00 0.61 0.60 65 1011.6
20260903165625 87 246 3.0 8.0 0.00 0.61 0.60 64 1011.6
20260903165525 87 257 3.0 8.0 0.00 0.61 0.60 64 1011.7
20260903165519 87 261 2.0 8.0 0.00 0.61 0.60 64 1011.7
20260903165424 87 240 3.0 8.0 0.00 0.61 0.60 66 1011.8
20260903165352 87 222 3.0 8.0 0.00 0.61 0.60 66 1011.7
20260903165347 87 325 3.0 8.0 0.00 0.61 0.60 66 1011.7
20260903165233 87 284 2.0 8.0 0.00 0.61 0.60 67 1011.7
20260903165034 87 276 3.0 6.0 0.00 0.61 0.60 69 1011.7
20260903165023 87 252 1.0 8.0 0.00 0.61 0.60 69 1011.8
20260903164923 87 262 1.0 6.0 0.00 0.61 0.60 68 1011.8
20260903164822 87 263 1.0 6.0 0.00 0.61 0.60 70 1011.8
20260903164722 87 319 1.0 6.0 0.00 0.61 0.60 70 1011.9
20260903164643 87 227 0.0 5.0 0.00 0.61 0.60 72 1011.9
20260903164534 86 226 3.0 5.0 0.00 0.61 0.60 70 1011.8
20260903164529 86 227 0.0 5.0 0.00 0.61 0.60 70 1011.9
20260903164341 86 355 0.0 0.0 0.00 0.61 0.60 70 1011.9
20260903164228 86 221 0.0 0.0 0.00 0.61 0.60 70 1012.0
20260903164019 86 188 0.0 0.0 0.00 0.61 0.60 71 1012.0
20260903163918 86 177 0.0 0.0 0.00 0.61 0.60 72 1012.1
20260903163825 86 246 0.0 0.0 0.00 0.61 0.60 73 1012.1
20260903163817 85 247 0.0 0.0 0.00 0.61 0.60 73 1012.1
20260903163717 85 216 0.0 0.0 0.00 0.61 0.60 73 1012.0
20260903163617 85 202 0.0 0.0 0.00 0.61 0.60 73 1012.1
20260903163535 85 220 0.0 0.0 0.00 0.61 0.60 74 1011.9
20260903163517 85 220 0.0 0.0 0.00 0.61 0.60 74 1012.0
20260903163413 85 221 0.0 0.0 0.00 0.61 0.60 73 1012.0
20260903163313 85 221 0.0 0.0 0.00 0.61 0.60 72 1011.9
20260903163212 85 186 0.0 0.0 0.00 0.61 0.60 73 1012.0
20260903163112 84 186 0.0 0.0 0.00 0.61 0.60 73 1012.0
20260903163019 84 190 0.0 0.0 0.00 0.61 0.60 74 1011.8
20260903163012 84 190 0.0 0.0 0.00 0.61 0.60 74 1012.0
20260903162911 84 290 0.0 0.0 0.00 0.61 0.60 73 1011.9
20260903162810 84 182 0.0 0.0 0.00 0.61 0.60 73 1011.9
20260903162709 84 182 0.0 0.0 0.00 0.61 0.60 73 1011.9
20260903162607 84 269 0.0 0.0 0.00 0.61 0.60 73 1011.9
20260903162549 84 236 0.0 0.0 0.00 0.61 0.60 74 1011.7
20260903162506 84 205 0.0 0.0 0.00 0.61 0.60 74 1011.9
20260903162406 84 214 0.0 0.0 0.00 0.61 0.60 73 1011.8
20260903162324 84 262 0.0 0.0 0.00 0.61 0.60 73 1011.7
20260903162307 84 250 0.0 0.0 0.00 0.61 0.60 73 1011.7
20260903162206 84 198 0.0 0.0 0.00 0.61 0.60 74 1011.9
20260903162106 84 258 0.0 0.0 0.00 0.61 0.60 74 1011.7
20260903162034 84 297 0.0 0.0 0.00 0.61 0.60 73 1011.6
20260903162006 84 297 0.0 0.0 0.00 0.61 0.60 73 1011.7
20260903161906 84 215 0.0 0.0 0.00 0.61 0.60 74 1011.9
20260903161822 84 200 0.0 0.0 0.00 0.61 0.60 74 1011.9
20260903161805 84 199 0.0 0.0 0.00 0.61 0.60 74 1011.9
20260903161705 84 199 0.0 0.0 0.00 0.61 0.60 75 1011.7
20260903161605 84 256 0.0 0.0 0.00 0.61 0.60 75 1011.7
20260903161519 84 234 0.0 0.0 0.00 0.61 0.60 76 1011.6
20260903161504 83 240 0.0 0.0 0.00 0.61 0.60 76 1011.7
20260903161403 83 215 0.0 0.0 0.00 0.61 0.60 77 1011.7
20260903161323 83 215 0.0 0.0 0.00 0.61 0.60 77 1011.7
20260903161302 83 217 0.0 0.0 0.00 0.61 0.60 77 1011.7
20260903161202 83 215 0.0 0.0 0.00 0.61 0.60 77 1011.7
20260903161101 83 205 0.0 0.0 0.00 0.61 0.60 77 1011.8
20260903161020 83 205 0.0 0.0 0.00 0.61 0.60 77 1010.8
20260903161000 83 205 0.0 0.0 0.00 0.61 0.60 77 1010.9
20260903160900 83 205 0.0 0.0 0.00 0.61 0.60 76 1010.9
20260903160822 83 205 0.0 0.0 0.00 0.61 0.60 78 1010.9
20260903160812 83 228 0.0 0.0 0.00 0.61 0.60 78 1012.1
20260903160807 83 202 0.0 0.0 0.00 0.61 0.60 78 1011.1
20260903160557 83 229 0.0 0.0 0.00 0.61 0.60 77 1012.1
20260903160524 83 229 0.0 0.0 0.00 0.61 0.60 77 1012.1
20260903160520 83 229 0.0 0.0 0.00 0.61 0.60 77 1012.1
20260903160411 82 269 0.0 0.0 0.00 0.61 0.60 76 1012.1
20260903160402 82 243 0.0 0.0 0.00 0.61 0.60 77 1012.1
20260903160155 82 261 0.0 0.0 0.00 0.61 0.60 77 1010.1
20260903160055 82 317 0.0 0.0 0.00 0.61 0.60 77 1010.1
20260903160036 82 273 0.0 0.0 0.00 0.61 0.60 78 1011.8
20260903160019 82 213 0.0 0.0 0.00 0.61 0.60 77 1011.8
20260903155955 82 287 0.0 0.0 0.00 0.61 0.60 77 1011.8
20260903155927 82 257 0.0 0.0 0.00 0.61 0.60 78 1011.8
20260903155753 82 281 0.0 0.0 0.00 0.61 0.60 78 1011.8
20260903155652 82 237 0.0 0.0 0.00 0.61 0.60 79 1012.2
20260903155552 82 219 0.0 0.0 0.00 0.61 0.60 79 1011.8
20260903155519 82 9 0.0 0.0 0.00 0.61 0.60 79 1011.8
20260903155451 82 302 0.0 0.0 0.00 0.61 0.60 79 1011.8
20260903155350 82 212 0.0 0.0 0.00 0.61 0.60 79 1011.9
20260903155319 82 212 0.0 0.0 0.00 0.61 0.60 79 1011.9
20260903155250 82 212 0.0 0.0 0.00 0.61 0.60 79 1012.4
20260903155150 82 212 0.0 0.0 0.00 0.61 0.60 79 1012.5
20260903155127 82 207 0.0 0.0 0.00 0.61 0.60 79 1012.5
20260903155047 82 212 0.0 0.0 0.00 0.61 0.60 79 1012.5
20260903155023 82 209 0.0 0.0 0.00 0.61 0.60 78 1012.6
20260903155019 82 209 0.0 0.0 0.00 0.61 0.60 79 1012.6
20260903155014 82 209 0.0 0.0 0.00 0.61 0.60 79 1012.5
20260903154755 82 207 0.0 0.0 0.00 0.61 0.60 78 1012.3
20260903154546 82 143 0.0 0.0 0.00 0.61 0.60 77 1012.4
20260903154519 82 243 0.0 0.0 0.00 0.61 0.60 77 1012.6
20260903154446 82 264 0.0 0.0 0.00 0.61 0.60 77 1012.6
20260903154344 82 267 0.0 0.0 0.00 0.61 0.60 78 1012.5
20260903154316 82 236 0.0 0.0 0.00 0.61 0.60 78 1012.5
20260903154244 82 190 0.0 0.0 0.00 0.61 0.60 78 1012.3
20260903154143 82 190 0.0 0.0 0.00 0.61 0.60 78 1012.2
20260903154046 82 222 0.0 0.0 0.00 0.61 0.60 78 1012.3
20260903154039 82 262 0.0 0.0 0.00 0.61 0.60 78 1011.7
20260903154019 82 230 0.0 0.0 0.00 0.61 0.60 78 1012.4
20260903153943 82 306 0.0 0.0 0.00 0.61 0.60 78 1012.4
20260903153924 82 263 0.0 0.0 0.00 0.61 0.60 78 1011.7
20260903153756 82 255 0.0 0.0 0.00 0.61 0.60 78 1012.6
20260903153750 82 265 0.0 0.0 0.00 0.61 0.60 79 1012.3
20260903153605 82 209 0.0 0.0 0.00 0.61 0.60 79 1012.2
20260903153541 82 256 0.0 0.0 0.00 0.61 0.60 78 1012.3
20260903153534 82 241 0.0 0.0 0.00 0.61 0.60 79 1011.6
20260903153508 82 259 0.0 0.0 0.00 0.61 0.60 79 1012.2
20260903153503 82 252 0.0 0.0 0.00 0.61 0.60 79 1011.6
20260903153454 82 209 0.0 0.0 0.00 0.61 0.60 79 1012.2
20260903153154 82 221 0.0 0.0 0.00 0.61 0.60 78 1012.5
20260903153149 82 221 0.0 0.0 0.00 0.61 0.60 78 1012.5
20260903153020 82 285 0.0 0.0 0.00 0.61 0.60 78 1012.5
20260903152939 82 285 0.0 0.0 0.00 0.61 0.60 78 1012.5
20260903152837 82 212 0.0 0.0 0.00 0.61 0.60 78 1012.7
20260903152812 82 213 0.0 0.0 0.00 0.61 0.60 78 1012.7
20260903152737 82 229 0.0 0.0 0.00 0.61 0.60 78 1012.7
20260903152637 82 203 0.0 0.0 0.00 0.61 0.60 79 1012.8
20260903152536 82 163 0.0 0.0 0.00 0.61 0.60 78 1012.7
20260903152519 82 163 0.0 0.0 0.00 0.61 0.60 77 1012.8
20260903152435 82 162 0.0 0.0 0.00 0.61 0.60 77 1012.8
20260903152335 82 209 0.0 0.0 0.00 0.61 0.60 76 1012.8
20260903152312 82 284 0.0 0.0 0.00 0.61 0.60 77 1012.8
20260903152234 82 336 0.0 0.0 0.00 0.61 0.60 77 1012.9
20260903152136 82 261 0.0 0.0 0.00 0.61 0.60 77 1012.8
20260903152129 82 259 0.0 0.0 0.00 0.61 0.60 77 1012.9
20260903152125 82 259 0.0 0.0 0.00 0.61 0.60 77 1012.9
20260903152118 82 252 0.0 0.0 0.00 0.61 0.60 77 1012.9
20260903152019 82 283 0.0 0.0 0.00 0.61 0.60 77 1012.9
20260903152005 82 283 0.0 0.0 0.00 0.61 0.60 76 1012.9
20260903151956 82 287 0.0 0.0 0.00 0.61 0.60 77 1012.9
20260903151531 82 264 0.0 0.0 0.00 0.61 0.60 77 1012.9
20260903151519 82 264 0.0 0.0 0.00 0.61 0.60 77 1012.5
20260903151431 82 261 0.0 0.0 0.00 0.61 0.60 77 1012.5
20260903151350 82 259 0.0 0.0 0.00 0.61 0.60 78 1011.9
20260903151345 82 306 0.0 0.0 0.00 0.61 0.60 78 1012.7
20260903151337 82 318 0.0 0.0 0.00 0.61 0.60 78 1012.7
20260903151144 82 196 0.0 0.0 0.00 0.61 0.60 80 1009.0
20260903151138 82 284 0.0 0.0 0.00 0.61 0.60 78 1011.9
20260903151034 82 196 0.0 0.0 0.00 0.61 0.60 80 1008.9
20260903150928 82 196 0.0 0.0 0.00 0.61 0.60 80 1009.0
20260903150827 82 196 0.0 0.0 0.00 0.61 0.60 81 1009.0
20260903150809 82 194 0.0 0.0 0.00 0.61 0.60 81 1009.0
20260903150727 82 220 0.0 0.0 0.00 0.61 0.60 81 1009.0
20260903150627 82 266 0.0 0.0 0.00 0.61 0.60 82 1009.0
20260903150526 81 235 0.0 0.0 0.00 0.61 0.60 81 1008.9
20260903150519 81 236 0.0 0.0 0.00 0.61 0.60 81 1008.9
20260903150426 81 235 0.0 0.0 0.00 0.61 0.60 81 1008.9
20260903150324 81 235 0.0 0.0 0.00 0.61 0.60 81 1009.1
20260903150306 81 245 0.0 0.0 0.00 0.61 0.60 81 1009.1
20260903150224 81 247 0.0 0.0 0.00 0.61 0.60 81 1008.6
20260903150124 81 248 0.0 0.0 0.00 0.61 0.60 81 1008.7
20260903150037 81 269 0.0 0.0 0.00 0.61 0.60 81 1010.2
20260903150032 81 257 0.0 0.0 0.00 0.61 0.60 81 1010.2
20260903150019 81 257 0.0 0.0 0.00 0.61 0.60 82 1010.2
20260903145806 81 271 0.0 0.0 0.00 0.61 0.60 81 1013.0
20260903145721 81 271 0.0 0.0 0.00 0.61 0.60 81 1013.0
20260903145635 81 270 0.0 0.0 0.00 0.61 0.60 80 1013.0
20260903145629 81 271 0.0 0.0 0.00 0.61 0.60 80 1013.0
20260903145520 81 270 0.0 0.0 0.00 0.61 0.60 80 1011.3
20260903145420 81 290 0.0 0.0 0.00 0.61 0.60 80 1011.3
20260903145306 81 263 0.0 0.0 0.00 0.61 0.60 80 1011.3
20260903145218 81 268 0.0 0.0 0.00 0.61 0.60 80 1011.3
20260903145131 81 268 0.0 0.0 0.00 0.61 0.60 81 1011.9
20260903145126 81 218 0.0 0.0 0.00 0.61 0.60 80 1011.3
20260903145019 81 269 0.0 0.0 0.00 0.61 0.60 80 1011.4
20260903144917 81 270 0.0 0.0 0.00 0.61 0.60 80 1011.4
20260903144804 81 254 0.0 0.0 0.00 0.61 0.60 81 1011.1
20260903144730 81 254 0.0 0.0 0.00 0.61 0.60 81 1011.2
20260903144724 81 250 0.0 0.0 0.00 0.61 0.60 81 1011.2
20260903144519 81 254 0.0 0.0 0.00 0.61 0.60 81 1010.6
20260903144515 81 254 0.0 0.0 0.00 0.61 0.60 81 1011.2
20260903144414 81 281 0.0 0.0 0.00 0.61 0.60 82 1010.6
20260903144314 80 305 0.0 0.0 0.00 0.61 0.60 84 1010.9
20260903144304 80 233 0.0 0.0 0.00 0.61 0.60 84 1010.9
20260903144214 80 232 0.0 0.0 0.00 0.61 0.60 83 1010.9
20260903144127 80 230 0.0 0.0 0.00 0.61 0.60 85 1011.6
20260903144122 80 232 0.0 0.0 0.00 0.61 0.60 83 1011.3
20260903144019 80 246 0.0 0.0 0.00 0.61 0.60 85 1012.2
20260903143912 80 242 0.0 0.0 0.00 0.61 0.60 85 1012.2
20260903143812 80 242 0.0 0.0 0.00 0.61 0.60 85 1012.1
20260903143803 80 242 0.0 0.0 0.00 0.61 0.60 84 1009.5
20260903143725 80 241 0.0 0.0 0.00 0.61 0.60 84 1009.5
20260903143720 80 241 0.0 0.0 0.00 0.61 0.60 84 1009.5
20260903143534 80 194 0.0 0.0 0.00 0.61 0.60 84 1011.8
20260903143510 80 194 0.0 0.0 0.00 0.61 0.60 84 1009.5
20260903143410 80 194 0.0 0.0 0.00 0.61 0.60 83 1011.8
20260903143310 79 201 0.0 0.0 0.00 0.61 0.60 84 1011.8
20260903143303 79 233 0.0 0.0 0.00 0.61 0.60 84 1011.8
20260903143209 79 331 0.0 0.0 0.00 0.61 0.60 84 1011.8
20260903143108 79 255 0.0 0.0 0.00 0.61 0.60 85 1011.3
20260903143019 79 199 0.0 0.0 0.00 0.61 0.60 85 1009.9
20260903143007 79 202 0.0 0.0 0.00 0.61 0.60 85 1009.9
20260903142907 79 267 0.0 0.0 0.00 0.61 0.60 85 1009.9
20260903142810 79 275 0.0 0.0 0.00 0.61 0.60 86 1010.6
20260903142803 79 288 0.0 0.0 0.00 0.61 0.60 86 1010.6
20260903142706 79 268 0.0 0.0 0.00 0.61 0.60 86 1008.6
20260903142607 79 246 0.0 0.0 0.00 0.61 0.60 88 1008.6
20260903142519 79 261 0.0 0.0 0.00 0.61 0.60 88 1008.6
20260903142506 79 261 0.0 0.0 0.00 0.61 0.60 88 1008.6
20260903142406 79 261 0.0 0.0 0.00 0.61 0.60 88 1008.6
20260903142306 78 261 0.0 0.0 0.00 0.61 0.60 88 1008.6
20260903142207 78 262 0.0 0.0 0.00 0.61 0.60 88 1008.5
20260903142200 78 224 0.0 0.0 0.00 0.61 0.60 89 1012.2
20260903142156 78 191 0.0 0.0 0.00 0.61 0.60 89 1011.8
20260903142149 78 262 0.0 0.0 0.00 0.61 0.60 87 1012.2
20260903142020 78 236 0.0 0.0 0.00 0.61 0.60 89 1012.2
20260903141927 78 259 0.0 0.0 0.00 0.61 0.60 89 1012.2
20260903141813 78 191 0.0 0.0 0.00 0.61 0.60 89 1011.8
20260903141602 78 276 0.0 0.0 0.00 0.61 0.60 91 1009.4
20260903141519 78 205 0.0 0.0 0.00 0.61 0.60 92 1009.4
20260903141502 78 205 0.0 0.0 0.00 0.61 0.60 92 1009.4
20260903141402 78 206 0.0 0.0 0.00 0.61 0.60 92 1009.4
20260903141301 78 206 0.0 0.0 0.00 0.61 0.60 93 1010.0
20260903141200 77 207 0.0 0.0 0.00 0.61 0.60 93 1010.0
20260903141100 77 252 0.0 0.0 0.00 0.61 0.60 93 1009.0
20260903141042 77 252 0.0 0.0 0.00 0.61 0.60 93 1008.7
20260903141019 77 250 0.0 0.0 0.00 0.61 0.60 93 1009.0
20260903140959 77 250 0.0 0.0 0.00 0.61 0.60 93 1009.0
20260903140942 77 252 0.0 0.0 0.00 0.61 0.60 94 1008.9
20260903140938 76 277 0.0 0.0 0.00 0.61 0.60 94 1008.8
20260903140931 77 251 0.0 0.0 0.00 0.61 0.60 93 1008.7
20260903140817 77 252 0.0 0.0 0.00 0.61 0.60 93 1008.7
20260903140520 76 250 0.0 0.0 0.00 0.61 0.60 94 1009.1
20260903140458 76 250 0.0 0.0 0.00 0.61 0.60 94 1009.1
20260903140358 76 258 0.0 0.0 0.00 0.61 0.60 95 1009.4
20260903140257 76 242 0.0 0.0 0.00 0.61 0.60 95 1010.5
20260903140157 76 241 0.0 0.0 0.00 0.61 0.60 95 1010.5
20260903140139 76 242 0.0 0.0 0.00 0.61 0.60 95 1010.3
20260903140133 76 241 0.0 0.0 0.00 0.61 0.60 95 1010.5
20260903140034 76 242 0.0 0.0 0.00 0.61 0.60 95 1010.3
20260903135910 76 238 0.0 0.0 0.00 0.61 0.60 95 1010.6
20260903135902 76 238 0.0 0.0 0.00 0.61 0.60 95 1010.5
20260903135655 76 242 0.0 0.0 0.00 0.61 0.60 95 1011.0
20260903135554 76 242 0.0 0.0 0.00 0.61 0.60 95 1010.6
20260903135523 75 257 0.0 0.0 0.00 0.61 0.60 96 1010.5
20260903135520 76 242 0.0 0.0 0.00 0.61 0.60 95 1010.6
20260903135453 76 257 0.0 0.0 0.00 0.61 0.60 95 1010.5
20260903135407 76 257 0.0 0.0 0.00 0.61 0.60 95 1010.5
20260903135253 75 257 0.0 0.0 0.00 0.61 0.60 96 1010.5
20260903135152 75 257 0.0 0.0 0.00 0.61 0.60 96 1010.5
20260903135106 75 237 0.0 0.0 0.00 0.61 0.60 96 1010.5
20260903135100 75 256 0.0 0.0 0.00 0.61 0.60 96 1010.5
20260903135020 75 237 0.0 0.0 0.00 0.61 0.60 96 1010.5
20260903134850 75 234 0.0 0.0 0.00 0.61 0.60 96 1010.5
20260903134809 75 281 0.0 0.0 0.00 0.61 0.60 97 1011.0
20260903134804 75 255 0.0 0.0 0.00 0.61 0.60 96 1011.0
20260903134758 75 278 0.0 0.0 0.00 0.61 0.60 96 1011.0
20260903134546 75 281 0.0 0.0 0.00 0.61 0.60 97 1011.0
20260903134520 75 281 0.0 0.0 0.00 0.61 0.60 97 1011.4
20260903134459 75 281 0.0 0.0 0.00 0.61 0.60 97 1011.5
20260903134454 75 281 0.0 0.0 0.00 0.61 0.60 97 1011.4
20260903134244 75 281 0.0 0.0 0.00 0.61 0.60 97 1011.9
20260903134144 75 281 0.0 0.0 0.00 0.61 0.60 97 1012.0
20260903134042 75 281 0.0 0.0 0.00 0.61 0.60 97 1012.0
20260903134019 75 281 0.0 0.0 0.00 0.61 0.60 98 1012.1
20260903134014 75 281 0.0 0.0 0.00 0.61 0.60 98 1012.0
20260903133941 75 281 0.0 0.0 0.00 0.61 0.60 98 1012.1
20260903133902 75 281 0.0 0.0 0.00 0.61 0.60 98 1012.0
20260903133741 75 281 0.0 0.0 0.00 0.61 0.60 98 1012.0
20260903133654 75 281 0.0 0.0 0.00 0.61 0.60 98 1009.6
20260903133649 75 281 0.0 0.0 0.00 0.61 0.60 98 1011.9
20260903133535 75 281 0.0 0.0 0.00 0.61 0.60 98 1009.6
20260903133439 75 281 0.0 0.0 0.00 0.61 0.60 98 1009.6
20260903133339 75 281 0.0 0.0 0.00 0.61 0.60 98 1009.6
20260903133252 75 281 0.0 0.0 0.00 0.61 0.60 98 1009.6
20260903133238 75 281 0.0 0.0 0.00 0.61 0.60 98 1009.6
20260903133138 74 281 0.0 0.0 0.00 0.61 0.60 98 1011.8
20260903133038 74 281 0.0 0.0 0.00 0.61 0.60 98 1011.8
20260903133019 74 290 0.0 0.0 0.00 0.61 0.60 98 1010.6
20260903132937 74 290 0.0 0.0 0.00 0.61 0.60 98 1010.6
20260903132836 74 290 0.0 0.0 0.00 0.61 0.60 98 1010.6
20260903132747 74 290 0.0 0.0 0.00 0.61 0.60 98 1010.6
20260903132738 74 290 0.0 0.0 0.00 0.61 0.60 98 1010.6
20260903132627 74 292 0.0 0.0 0.00 0.61 0.60 98 1011.8
20260903132623 74 292 0.0 0.0 0.00 0.61 0.60 98 1009.5
20260903132619 73 292 0.0 0.0 0.00 0.61 0.60 98 1009.5
20260903132612 74 292 0.0 0.0 0.00 0.61 0.60 98 1009.2
20260903132603 74 292 0.0 0.0 0.00 0.61 0.60 98 1009.2
20260903132519 74 292 0.0 0.0 0.00 0.61 0.60 98 1009.2
20260903132339 74 292 0.0 0.0 0.00 0.61 0.60 98 1011.8
20260903132020 73 292 0.0 0.0 0.00 0.61 0.60 98 1009.7
20260903131932 73 292 0.0 0.0 0.00 0.61 0.60 98 1009.7
20260903131856 73 292 0.0 0.0 0.00 0.61 0.60 98 1011.0
20260903131731 73 292 0.0 0.0 0.00 0.61 0.60 98 1011.0
20260903131630 73 292 0.0 0.0 0.00 0.61 0.60 98 1009.1
20260903131530 73 291 0.0 0.0 0.00 0.61 0.60 98 1009.1
20260903131520 73 291 0.0 0.0 0.00 0.61 0.60 98 1009.1
20260903131430 73 291 0.0 0.0 0.00 0.61 0.60 98 1009.1
20260903131329 73 294 0.0 0.0 0.00 0.61 0.60 98 1009.1
20260903131248 73 295 0.0 0.0 0.00 0.61 0.60 98 1009.2
20260903131242 73 200 0.0 0.0 0.00 0.61 0.60 98 1009.2
20260903131237 73 294 0.0 0.0 0.00 0.61 0.60 98 1009.2
20260903131028 73 200 0.0 0.0 0.00 0.61 0.60 98 1009.2
20260903131020 73 200 0.0 0.0 0.00 0.61 0.60 98 1009.2
20260903131017 73 200 0.0 0.0 0.00 0.61 0.60 98 1008.9
20260903130926 73 200 0.0 0.0 0.00 0.61 0.60 98 1009.2
20260903130857 73 200 0.0 0.0 0.00 0.61 0.60 98 1009.0
20260903130740 72 200 0.0 0.0 0.00 0.61 0.60 98 1009.4
20260903130735 73 200 0.0 0.0 0.00 0.61 0.60 98 1008.9
20260903130534 72 235 0.0 0.0 0.00 0.61 0.60 98 1009.2
20260903130525 72 235 0.0 0.0 0.00 0.61 0.60 98 1009.3
20260903130425 72 235 0.0 0.0 0.00 0.61 0.60 98 1009.2
20260903130323 72 235 0.0 0.0 0.00 0.61 0.60 98 1009.3
20260903130222 72 235 0.0 0.0 0.00 0.61 0.60 98 1009.8
20260903130120 72 235 0.0 0.0 0.00 0.61 0.60 98 1010.4
20260903130020 72 234 0.0 0.0 0.00 0.61 0.60 98 1010.4
20260903125920 72 229 0.0 0.0 0.00 0.61 0.60 98 1010.1
20260903125837 72 229 0.0 0.0 0.00 0.61 0.60 98 1010.4
20260903125832 72 229 0.0 0.0 0.00 0.61 0.60 98 1009.8
20260903125824 72 229 0.0 0.0 0.00 0.61 0.60 98 1010.4
20260903125624 72 229 0.0 0.0 0.00 0.61 0.60 98 1010.5
20260903125615 71 229 0.0 0.0 0.00 0.61 0.60 98 1011.2
20260903125549 72 229 0.0 0.0 0.00 0.61 0.60 98 1011.2
20260903125416 71 229 0.0 0.0 0.00 0.61 0.60 98 1011.2
20260903125353 71 229 0.0 0.0 0.00 0.61 0.60 98 1011.9
20260903125216 71 229 0.0 0.0 0.00 0.61 0.60 98 1012.3
20260903125113 71 229 0.0 0.0 0.00 0.61 0.60 98 1012.4
20260903125019 71 229 0.0 0.0 0.00 0.61 0.60 98 1012.6
20260903125013 71 229 0.0 0.0 0.00 0.61 0.60 98 1012.6
20260903124912 71 229 0.0 0.0 0.00 0.61 0.60 98 1012.6
20260903124812 71 229 0.0 0.0 0.00 0.61 0.60 98 1012.6
20260903124743 71 229 0.0 0.0 0.00 0.61 0.60 98 1012.6
20260903124711 71 229 0.0 0.0 0.00 0.61 0.60 98 1012.6
20260903124611 71 229 0.0 0.0 0.00 0.61 0.60 98 1012.6
20260903124521 71 229 0.0 0.0 0.00 0.61 0.60 97 1012.6
20260903124511 71 229 0.0 0.0 0.00 0.61 0.60 97 1012.6
20260903124410 71 229 0.0 0.0 0.00 0.61 0.60 97 1012.6
20260903124309 71 229 0.0 0.0 0.00 0.61 0.60 97 1012.6
20260903124241 71 229 0.0 0.0 0.00 0.61 0.60 97 1012.5
20260903124208 71 229 0.0 0.0 0.00 0.61 0.60 97 1012.5
20260903124108 71 229 0.0 0.0 0.00 0.61 0.60 97 1012.5
20260903124019 71 229 0.0 0.0 0.00 0.61 0.60 97 1012.5
20260903124009 71 229 0.0 0.0 0.00 0.61 0.60 97 1012.5
20260903123952 71 229 0.0 0.0 0.00 0.61 0.60 98 1012.4
20260903123948 71 229 0.0 0.0 0.00 0.61 0.60 98 1012.5
20260903123943 70 229 0.0 2.0 0.00 0.61 0.60 98 1012.4
20260903123938 71 229 0.0 0.0 0.00 0.61 0.60 98 1012.5
20260903123820 71 229 0.0 0.0 0.00 0.61 0.60 98 1012.5
20260903123519 70 229 0.0 3.0 0.00 0.61 0.60 97 1012.5
20260903123504 70 229 0.0 3.0 0.00 0.61 0.60 97 1012.4
20260903123404 70 229 0.0 3.0 0.00 0.61 0.60 97 1012.4
20260903123336 70 229 0.0 3.0 0.00 0.61 0.60 97 1012.5
20260903123332 70 229 0.0 3.0 0.00 0.61 0.60 97 1012.5
20260903123327 70 229 0.0 3.0 0.00 0.61 0.60 97 1012.4
20260903123320 70 229 0.0 3.0 0.00 0.61 0.60 97 1012.4
20260903123019 70 229 0.0 3.0 0.00 0.61 0.60 97 1012.6
20260903123001 70 229 0.0 3.0 0.00 0.61 0.60 97 1012.5
20260903122901 70 229 0.0 3.0 0.00 0.61 0.60 97 1012.5
20260903122801 70 229 0.0 3.0 0.00 0.61 0.60 97 1012.6
20260903122741 70 229 0.0 3.0 0.00 0.61 0.60 97 1012.6
20260903122659 70 229 0.0 3.0 0.00 0.61 0.60 97 1012.6
20260903122559 70 246 0.0 3.0 0.00 0.61 0.60 97 1012.7
20260903122519 70 250 0.0 1.0 0.00 0.61 0.60 97 1012.8
20260903122459 70 250 0.0 1.0 0.00 0.61 0.60 97 1012.7
20260903122358 70 250 0.0 1.0 0.00 0.61 0.60 98 1012.7
20260903122257 70 250 0.0 1.0 0.00 0.61 0.60 98 1012.7
20260903122240 70 250 0.0 1.0 0.00 0.61 0.60 98 1012.7
20260903122224 70 250 0.0 2.0 0.00 0.61 0.60 98 1012.8
20260903122220 70 250 0.0 2.0 0.00 0.61 0.60 98 1012.8
20260903122215 70 250 0.0 2.0 0.00 0.61 0.60 98 1012.7
20260903122021 70 250 0.0 1.0 0.00 0.61 0.60 98 1012.9
20260903121909 70 250 0.0 2.0 0.00 0.61 0.60 98 1012.8
20260903121904 70 250 0.0 2.0 0.00 0.61 0.60 98 1012.8
20260903121742 70 250 0.0 2.0 0.00 0.61 0.60 98 1012.8
20260903121655 70 250 0.0 2.0 0.00 0.61 0.60 98 1012.8
20260903121554 70 250 0.0 2.0 0.00 0.61 0.60 97 1012.7
20260903121519 70 250 0.0 2.0 0.00 0.61 0.60 97 1012.8
20260903121454 70 250 0.0 2.0 0.00 0.61 0.60 97 1012.7
20260903121353 70 250 0.0 2.0 0.00 0.61 0.60 97 1012.7
20260903121312 69 242 0.0 2.0 0.00 0.61 0.60 97 1012.7
20260903121300 70 250 0.0 2.0 0.00 0.61 0.60 97 1012.7
20260903121052 69 242 0.0 2.0 0.00 0.61 0.60 97 1012.7
20260903121020 70 242 0.0 2.0 0.00 0.61 0.60 97 1012.8
20260903120951 69 242 0.0 2.0 0.00 0.61 0.60 97 1012.7
20260903120850 69 242 0.0 2.0 0.00 0.61 0.60 97 1012.7
20260903120738 69 242 0.0 2.0 0.00 0.61 0.60 97 1012.6
20260903120649 69 242 0.0 2.0 0.00 0.61 0.60 97 1012.5
20260903120549 69 254 0.0 5.0 0.00 0.61 0.60 97 1012.5
20260903120519 69 252 0.0 5.0 0.00 0.61 0.60 97 1012.6
20260903120446 69 252 0.0 5.0 0.00 0.61 0.60 97 1012.5
20260903120346 69 252 0.0 5.0 0.00 0.61 0.60 97 1012.5
20260903120242 69 167 0.0 5.0 0.00 0.61 0.60 97 1012.3
20260903120238 69 252 0.0 5.0 0.00 0.61 0.60 97 1012.5
20260903120232 69 167 0.0 5.0 0.00 0.61 0.60 97 1012.3
20260903120226 69 167 0.0 5.0 0.00 0.61 0.60 97 1012.4
20260903120019 69 167 0.0 5.0 0.00 0.61 0.60 97 1012.4
20260903115854 69 167 0.0 5.0 0.00 0.61 0.60 97 1012.2
20260903115738 69 167 1.0 5.0 0.00 0.61 0.60 97 1012.1
20260903115642 69 167 1.0 7.0 0.00 0.61 0.60 97 1012.0
20260903115542 69 184 1.0 7.0 0.00 0.61 0.60 97 1012.0
20260903115534 69 302 0.0 7.0 0.00 0.61 0.60 97 1012.1
20260903115442 69 302 1.0 7.0 0.00 0.61 0.60 97 1012.0
20260903115340 69 306 1.0 7.0 0.00 0.61 0.60 97 1012.0
20260903115236 69 306 1.0 7.0 0.00 0.61 0.60 97 1012.0
20260903115154 69 306 1.0 7.0 0.00 0.61 0.60 97 1012.3
20260903115149 69 306 1.0 7.0 0.00 0.61 0.60 97 1012.1
20260903115020 69 306 0.0 7.0 0.00 0.61 0.60 97 1012.7
20260903114938 69 306 1.0 7.0 0.00 0.61 0.60 97 1012.6
20260903114838 69 309 1.0 7.0 0.00 0.61 0.60 97 1012.6
20260903114739 69 268 1.0 7.0 0.00 0.61 0.60 97 1012.4
20260903114651 69 271 1.0 2.0 0.00 0.61 0.60 97 1011.8
20260903114646 69 276 1.0 2.0 0.00 0.61 0.60 97 1012.2
20260903114519 69 222 0.0 2.0 0.00 0.61 0.60 97 1011.8
20260903114436 69 196 1.0 2.0 0.00 0.61 0.60 97 1011.7
20260903114336 69 213 1.0 2.0 0.00 0.61 0.60 97 1011.6
20260903114237 69 155 0.0 2.0 0.00 0.61 0.60 97 1011.6
20260903114135 69 146 0.0 2.0 0.00 0.61 0.60 97 1011.6
20260903114032 69 154 0.0 2.0 0.00 0.61 0.60 97 1011.8
20260903114020 69 159 0.0 2.0 0.00 0.61 0.60 97 1012.0
20260903113933 69 170 0.0 2.0 0.00 0.61 0.60 97 1011.9
20260903113926 69 190 0.0 1.0 0.00 0.61 0.60 97 1012.3
20260903113922 69 218 0.0 1.0 0.00 0.61 0.60 97 1012.5
20260903113915 69 191 0.0 2.0 0.00 0.61 0.60 97 1012.1
20260903113802 69 150 0.0 1.0 0.00 0.61 0.60 97 1012.2
20260903113756 69 148 0.0 1.0 0.00 0.61 0.60 97 1012.2
20260903113638 69 208 0.0 1.0 0.00 0.61 0.60 97 1012.4
20260903113520 69 218 0.0 1.0 0.00 0.61 0.60 97 1012.6
20260903113416 69 218 0.0 1.0 0.00 0.61 0.60 97 1012.5
20260903113301 69 218 0.0 1.0 0.00 0.61 0.60 97 1012.6
20260903113147 69 218 0.0 1.0 0.00 0.61 0.60 97 1012.7
20260903113020 69 218 0.0 1.0 0.00 0.61 0.60 97 1012.9
20260903112829 69 218 0.0 1.0 0.00 0.61 0.60 97 1012.8
20260903112748 69 198 0.0 1.0 0.00 0.61 0.60 97 1012.7
20260903112737 69 198 0.0 1.0 0.00 0.61 0.60 97 1012.8
20260903112613 69 198 0.0 1.0 0.00 0.61 0.60 97 1012.9
20260903112605 69 198 0.0 1.0 0.00 0.61 0.60 97 1013.0
20260903112559 69 198 0.0 1.0 0.00 0.61 0.60 97 1012.8
20260903112549 69 198 0.0 1.0 0.00 0.61 0.60 97 1012.9
20260903112520 69 198 0.0 1.0 0.00 0.61 0.60 97 1013.0
20260903112125 69 215 0.0 1.0 0.00 0.61 0.60 97 1013.1
20260903112025 69 123 0.0 1.0 0.00 0.61 0.60 97 1013.1
20260903112020 69 123 0.0 1.0 0.00 0.61 0.60 97 1013.1
20260903111925 69 123 0.0 1.0 0.00 0.61 0.60 97 1013.0
20260903111824 69 123 0.0 1.0 0.00 0.61 0.60 97 1013.0
20260903111724 69 123 0.0 1.0 0.00 0.61 0.60 97 1013.0
20260903111623 69 123 0.0 2.0 0.00 0.61 0.60 97 1013.1
20260903111534 69 122 0.0 2.0 0.00 0.61 0.60 97 1013.1
20260903111523 69 122 0.0 2.0 0.00 0.61 0.60 97 1013.0
20260903111424 69 122 0.0 2.0 0.00 0.61 0.60 97 1013.0
20260903111323 69 263 0.0 2.0 0.00 0.61 0.60 97 1013.0
20260903111223 69 200 0.0 2.0 0.00 0.61 0.60 97 1013.1
20260903111122 69 200 0.0 2.0 0.00 0.61 0.60 97 1013.1
20260903111022 69 200 0.0 2.0 0.00 0.61 0.60 97 1013.1
20260903111020 69 200 0.0 2.0 0.00 0.61 0.60 97 1013.3
20260903110936 69 202 0.0 2.0 0.00 0.61 0.60 97 1013.2
20260903110930 69 200 0.0 2.0 0.00 0.61 0.60 97 1013.2
20260903110721 69 203 0.0 2.0 0.00 0.61 0.60 97 1013.2
20260903110620 69 273 0.0 2.0 0.00 0.61 0.60 97 1013.2
20260903110545 69 134 0.0 2.0 0.00 0.61 0.60 97 1013.4
20260903110520 69 273 0.0 2.0 0.00 0.61 0.60 97 1013.4
20260903110449 69 134 0.0 2.0 0.00 0.61 0.60 97 1013.4
20260903110443 69 142 0.0 2.0 0.00 0.61 0.60 97 1013.3
20260903110434 69 142 0.0 2.0 0.00 0.61 0.60 97 1013.4
20260903110117 69 134 0.0 2.0 0.00 0.61 0.60 97 1013.4
20260903110020 69 199 0.0 1.0 0.00 0.61 0.60 97 1013.6
20260903110016 69 147 0.0 2.0 0.00 0.61 0.60 97 1013.4
20260903105945 69 287 0.0 1.0 0.00 0.61 0.60 97 1013.6
20260903105915 69 287 0.0 1.0 0.00 0.61 0.60 97 1013.5
20260903105831 69 287 0.0 1.0 0.00 0.61 0.60 97 1013.5
20260903105715 69 287 0.0 1.0 0.00 0.61 0.60 97 1013.6
20260903105614 69 287 0.0 1.0 0.00 0.61 0.60 97 1013.7
20260903105528 69 287 0.0 1.0 0.00 0.61 0.60 97 1013.9
20260903105523 69 287 0.0 1.0 0.00 0.61 0.60 97 1013.8
20260903105520 69 287 0.0 1.0 0.00 0.61 0.60 97 1014.0
20260903105312 69 287 0.0 1.0 0.00 0.61 0.60 97 1014.0
20260903105210 69 287 0.0 1.0 0.00 0.61 0.60 97 1014.0
20260903105109 69 287 0.0 1.0 0.00 0.61 0.60 97 1014.1
20260903105020 69 287 0.0 1.0 0.00 0.61 0.60 97 1014.1
20260903105009 69 287 0.0 1.0 0.00 0.61 0.60 97 1014.1
20260903104909 69 287 0.0 1.0 0.00 0.61 0.60 97 1014.0
20260903104821 69 287 0.0 1.0 0.00 0.61 0.60 97 1014.0
20260903104813 69 287 0.0 1.0 0.00 0.61 0.60 97 1014.0
20260903104605 69 287 0.0 1.0 0.00 0.61 0.60 97 1014.1
20260903104535 69 287 0.0 1.0 0.00 0.61 0.60 97 1014.2
20260903104506 69 287 0.0 1.0 0.00 0.61 0.60 97 1014.1
20260903104406 69 287 0.0 1.0 0.00 0.61 0.60 97 1014.1
20260903104320 69 287 0.0 1.0 0.00 0.61 0.60 97 1014.1
20260903104312 69 287 0.0 1.0 0.00 0.61 0.60 97 1014.1
20260903104104 69 287 0.0 1.0 0.00 0.61 0.60 97 1014.1
20260903104045 69 290 0.0 3.0 0.01 0.61 0.60 97 1014.1
20260903104039 69 287 0.0 2.0 0.00 0.61 0.60 97 1014.1
20260903104020 69 287 0.0 2.0 0.00 0.61 0.60 97 1014.2
20260903103925 69 287 0.0 3.0 0.00 0.61 0.60 97 1014.1
20260903103808 69 290 0.0 3.0 0.01 0.61 0.60 97 1014.1
20260903103602 69 290 0.0 3.0 0.01 0.61 0.60 97 1014.0
20260903103520 70 290 0.0 3.0 0.01 0.61 0.60 97 1014.1
20260903103502 69 290 0.0 3.0 0.01 0.61 0.60 97 1014.0
20260903103416 69 290 0.0 3.0 0.01 0.61 0.60 97 1014.0
20260903103411 69 290 0.0 3.0 0.01 0.61 0.60 97 1014.1
20260903103216 69 284 0.0 3.0 0.01 0.61 0.60 97 1014.0
20260903103159 69 266 0.0 3.0 0.01 0.61 0.60 97 1014.1
20260903103059 69 260 0.0 3.0 0.01 0.61 0.60 97 1014.0
20260903103041 69 248 0.0 3.0 0.01 0.61 0.60 97 1013.9
20260903103037 69 248 0.0 3.0 0.01 0.61 0.60 97 1013.9
20260903103035 70 261 0.0 3.0 0.01 0.61 0.60 97 1014.1
20260903103031 69 261 0.0 3.0 0.01 0.61 0.60 97 1014.0
20260903103022 69 248 0.0 2.0 0.01 0.61 0.60 97 1013.9
20260903102556 69 248 0.0 3.0 0.01 0.61 0.60 97 1013.8
20260903102520 69 248 0.0 3.0 0.01 0.61 0.60 97 1013.9
20260903102457 69 248 0.0 3.0 0.01 0.61 0.60 97 1013.8
20260903102356 69 293 0.0 3.0 0.01 0.61 0.60 97 1013.8
20260903102255 69 293 0.0 3.0 0.02 0.61 0.60 97 1013.8
20260903102213 69 293 0.0 3.0 0.02 0.61 0.60 97 1013.8
20260903102155 69 285 0.0 3.0 0.02 0.61 0.60 97 1013.7
20260903102054 69 260 0.0 3.0 0.02 0.61 0.60 97 1013.5
20260903102020 69 282 1.0 3.0 0.02 0.61 0.60 97 1013.5
20260903101954 69 280 0.0 3.0 0.02 0.61 0.60 97 1013.4
20260903101854 69 261 0.0 3.0 0.02 0.61 0.60 97 1013.3
20260903101753 69 211 0.0 2.0 0.02 0.61 0.60 97 1013.2
20260903101726 69 207 0.0 2.0 0.03 0.61 0.60 97 1013.3
20260903101721 69 173 0.0 2.0 0.03 0.61 0.60 97 1013.3
20260903101717 69 211 0.0 2.0 0.03 0.61 0.60 97 1013.2
20260903101710 69 161 0.0 2.0 0.03 0.61 0.60 97 1013.3
20260903101534 69 173 0.0 1.0 0.03 0.61 0.60 97 1013.4
20260903101351 69 154 0.0 2.0 0.03 0.61 0.60 97 1013.3
20260903101310 69 201 0.0 2.0 0.04 0.61 0.60 97 1013.3
20260903101305 69 153 0.0 2.0 0.03 0.61 0.60 97 1013.3
20260903101257 69 201 0.0 2.0 0.03 0.61 0.60 97 1013.3
20260903101050 69 188 0.0 1.0 0.04 0.61 0.60 97 1013.4
20260903101035 69 160 1.0 1.0 0.04 0.61 0.60 97 1013.6
20260903100948 69 159 0.0 1.0 0.04 0.61 0.60 97 1013.5
20260903100848 69 184 0.0 1.0 0.04 0.61 0.60 97 1013.6
20260903100821 69 184 0.0 1.0 0.05 0.61 0.60 97 1013.8
20260903100816 69 184 0.0 1.0 0.05 0.61 0.60 97 1013.8
20260903100802 69 184 0.0 1.0 0.05 0.61 0.60 97 1013.8
20260903100519 69 184 0.0 1.0 0.05 0.61 0.60 97 1013.9
20260903100446 69 184 0.0 1.0 0.05 0.61 0.60 97 1013.8
20260903100346 69 184 0.0 1.0 0.05 0.61 0.60 97 1013.7
20260903100245 69 246 0.0 1.0 0.06 0.61 0.60 97 1013.7
20260903100213 69 246 0.0 1.0 0.06 0.61 0.60 97 1013.7
20260903100144 69 246 0.0 1.0 0.06 0.61 0.60 97 1013.7
20260903100044 69 246 0.0 1.0 0.06 0.61 0.60 97 1013.7
20260903100020 69 287 1.0 1.0 0.06 0.61 0.60 97 1013.8
20260903095943 69 302 0.0 1.0 0.06 0.61 0.60 97 1013.7
20260903095842 69 167 0.0 1.0 0.07 0.61 0.60 97 1013.6
20260903095713 69 167 0.0 1.0 0.07 0.61 0.60 97 1013.6
20260903095640 69 167 0.0 1.0 0.07 0.61 0.60 97 1013.6
20260903095539 69 167 0.0 1.0 0.07 0.61 0.60 97 1013.6
20260903095520 69 282 0.0 1.0 0.07 0.61 0.60 97 1013.8
20260903095439 69 282 0.0 1.0 0.07 0.61 0.60 97 1013.7
20260903095339 69 282 0.0 1.0 0.08 0.61 0.60 97 1013.8
20260903095238 69 282 0.0 1.0 0.08 0.61 0.60 97 1013.8
20260903095212 69 282 0.0 2.0 0.08 0.61 0.60 97 1013.8
20260903095152 69 281 0.0 7.0 0.08 0.61 0.60 97 1013.8
20260903095146 69 282 0.0 4.0 0.08 0.61 0.60 97 1013.8
20260903095020 69 281 0.0 7.0 0.09 0.61 0.60 97 1013.9
20260903094937 69 281 1.0 7.0 0.09 0.61 0.60 97 1013.8
20260903094835 69 281 1.0 7.0 0.09 0.61 0.60 97 1013.8
20260903094735 69 9 1.0 7.0 0.09 0.61 0.60 97 1013.8
20260903094712 69 13 1.0 7.0 0.09 0.61 0.60 97 1013.8
20260903094635 69 14 1.0 7.0 0.09 0.61 0.60 97 1013.6
20260903094534 69 14 1.0 7.0 0.09 0.61 0.60 97 1013.7
20260903094520 69 14 0.0 7.0 0.09 0.61 0.60 97 1013.8
20260903094513 69 14 1.0 7.0 0.09 0.61 0.60 97 1013.7
20260903094401 69 252 1.0 7.0 0.09 0.61 0.60 97 1013.4
20260903094355 69 257 1.0 7.0 0.09 0.61 0.60 97 1013.6
20260903094239 69 228 1.0 7.0 0.09 0.61 0.60 97 1013.5
20260903094031 69 188 1.0 7.0 0.09 0.61 0.60 97 1013.2
20260903094020 69 188 0.0 7.0 0.09 0.61 0.60 97 1013.2
20260903093930 69 178 1.0 7.0 0.09 0.61 0.60 97 1013.1
20260903093844 69 213 1.0 7.0 0.08 0.60 0.59 97 1013.0
20260903093838 69 190 1.0 7.0 0.09 0.61 0.60 97 1013.0
20260903093710 69 170 1.0 7.0 0.08 0.60 0.59 97 1013.0
20260903093629 69 167 1.0 7.0 0.08 0.60 0.59 97 1013.0
20260903093528 69 184 1.0 8.0 0.09 0.60 0.59 97 1012.9
20260903093519 69 145 1.0 8.0 0.09 0.60 0.59 97 1012.9
20260903093427 69 140 2.0 8.0 0.09 0.60 0.59 97 1012.8
20260903093341 69 193 2.0 8.0 0.09 0.60 0.59 97 1012.8
20260903093335 69 147 2.0 8.0 0.09 0.60 0.59 97 1012.7
20260903093209 69 132 2.0 8.0 0.09 0.60 0.59 97 1012.8
20260903093126 69 173 1.0 8.0 0.09 0.60 0.59 97 1012.8
20260903093050 68 202 2.0 8.0 0.09 0.60 0.59 97 1013.0
20260903093025 68 189 1.0 8.0 0.09 0.60 0.59 97 1012.8
20260903092938 68 159 1.0 8.0 0.10 0.61 0.59 97 1013.0
20260903092924 68 170 1.0 8.0 0.09 0.60 0.59 97 1012.9
20260903092824 68 163 1.0 8.0 0.09 0.61 0.59 97 1012.9
20260903092815 68 166 1.0 8.0 0.10 0.61 0.59 97 1013.0
20260903092622 68 145 0.0 8.0 0.10 0.61 0.59 97 1013.1
20260903092534 68 151 1.0 2.0 0.10 0.61 0.59 97 1013.6
20260903092522 68 162 0.0 2.0 0.10 0.61 0.59 97 1013.3
20260903092421 68 180 0.0 2.0 0.10 0.61 0.59 97 1013.5
20260903092320 68 178 0.0 2.0 0.09 0.60 0.59 97 1013.6
20260903092220 68 192 0.0 2.0 0.10 0.60 0.58 97 1013.7
20260903092208 68 179 0.0 2.0 0.10 0.60 0.58 97 1013.7
20260903092119 68 170 0.0 1.0 0.11 0.60 0.58 97 1013.8
20260903092021 68 170 0.0 1.0 0.11 0.60 0.58 97 1014.0
20260903092019 68 170 0.0 1.0 0.12 0.60 0.58 97 1013.8
20260903091918 68 170 0.0 1.0 0.12 0.60 0.58 97 1013.9
20260903091818 68 170 0.0 1.0 0.13 0.60 0.58 97 1013.9
20260903091707 68 170 0.0 1.0 0.12 0.59 0.57 97 1013.9
20260903091617 68 170 0.0 1.0 0.12 0.59 0.57 97 1013.9
20260903091520 68 170 0.0 1.0 0.12 0.59 0.57 97 1013.9
20260903091517 68 170 0.0 1.0 0.12 0.59 0.57 97 1013.9
20260903091431 68 166 0.0 1.0 0.13 0.59 0.57 97 1013.9
20260903091425 68 165 0.0 1.0 0.13 0.59 0.57 97 1013.8
20260903091235 68 191 0.0 1.0 0.12 0.58 0.56 97 1014.0
20260903091230 68 191 0.0 1.0 0.13 0.59 0.57 97 1014.0
20260903091223 68 191 0.0 1.0 0.12 0.58 0.57 97 1014.0
20260903091035 68 191 0.0 1.0 0.12 0.58 0.56 97 1014.2
20260903091029 68 191 0.0 1.0 0.12 0.58 0.56 97 1014.1
20260903091023 68 191 0.0 1.0 0.12 0.58 0.56 97 1014.2
20260903090814 68 191 0.0 1.0 0.11 0.57 0.56 97 1014.1
20260903090714 68 192 0.0 1.0 0.11 0.57 0.55 97 1014.1
20260903090701 68 192 0.0 1.0 0.11 0.57 0.55 97 1014.0
20260903090613 68 177 0.0 1.0 0.11 0.57 0.55 97 1014.0
20260903090525 68 207 0.0 1.0 0.12 0.57 0.55 97 1014.1
20260903090520 68 207 1.0 1.0 0.12 0.57 0.55 97 1014.2
20260903090312 68 207 0.0 1.0 0.12 0.57 0.55 97 1014.2
20260903090208 68 207 0.0 1.0 0.11 0.56 0.55 97 1014.2
20260903090201 68 207 0.0 1.0 0.11 0.56 0.55 97 1014.1
20260903090107 68 207 0.0 1.0 0.11 0.56 0.54 97 1014.1
20260903090019 68 207 0.0 1.0 0.11 0.56 0.54 97 1014.1
20260903090007 68 207 0.0 1.0 0.12 0.56 0.54 97 1014.1
20260903085905 68 207 0.0 1.0 0.11 0.55 0.54 97 1014.0
20260903085806 68 207 0.0 1.0 0.11 0.55 0.53 97 1013.9
20260903085708 68 207 0.0 1.0 0.11 0.55 0.53 97 1013.8
20260903085701 68 207 0.0 1.0 0.11 0.55 0.53 97 1013.8
20260903085604 68 207 0.0 1.0 0.11 0.55 0.53 97 1013.8
20260903085520 68 207 0.0 1.0 0.11 0.55 0.53 97 1014.0
20260903085504 68 207 0.0 1.0 0.11 0.55 0.53 97 1013.9
20260903085403 68 207 0.0 1.0 0.11 0.54 0.53 97 1013.9
20260903085305 68 207 0.0 2.0 0.11 0.54 0.52 97 1014.0
20260903085200 68 207 0.0 2.0 0.11 0.54 0.52 97 1014.0
20260903085102 68 207 0.0 2.0 0.11 0.54 0.52 97 1014.0
20260903085020 68 207 0.0 2.0 0.10 0.53 0.51 97 1014.2
20260903085001 68 207 0.0 2.0 0.10 0.53 0.51 97 1014.1
20260903084901 68 207 0.0 2.0 0.10 0.53 0.51 97 1014.0
20260903084829 68 207 0.0 2.0 0.10 0.53 0.51 97 1014.0
20260903084712 68 137 0.0 2.0 0.10 0.53 0.51 97 1013.9
20260903084550 68 136 0.0 2.0 0.10 0.53 0.51 97 1014.0
20260903084500 68 136 0.0 2.0 0.10 0.53 0.51 97 1013.9
20260903084359 68 137 0.0 2.0 0.10 0.53 0.51 97 1014.0
20260903084259 68 136 0.0 2.0 0.10 0.53 0.51 97 1014.1
20260903084205 68 136 0.0 2.0 0.10 0.53 0.51 97 1014.2
20260903084159 68 137 0.0 2.0 0.10 0.53 0.51 97 1014.2
20260903084056 68 121 0.0 2.0 0.10 0.53 0.51 97 1014.3
20260903084019 68 9 0.0 2.0 0.10 0.53 0.51 97 1014.5
20260903084017 68 9 0.0 2.0 0.11 0.53 0.51 97 1014.4
20260903083904 68 9 0.0 2.0 0.11 0.53 0.51 97 1014.4
20260903083654 68 9 0.0 2.0 0.12 0.53 0.51 97 1014.4
20260903083554 68 152 0.0 2.0 0.11 0.52 0.50 97 1014.4
20260903083519 68 152 0.0 2.0 0.11 0.52 0.50 97 1014.5
20260903083454 68 152 0.0 2.0 0.11 0.52 0.50 97 1014.4
20260903083408 68 188 0.0 1.0 0.11 0.52 0.50 97 1014.6
20260903083402 68 165 0.0 2.0 0.11 0.52 0.50 97 1014.5
20260903083153 68 213 0.0 1.0 0.11 0.52 0.50 97 1014.6
20260903083114 68 213 0.0 1.0 0.11 0.52 0.50 97 1014.6
20260903083020 68 213 0.0 2.0 0.11 0.52 0.50 97 1014.8
20260903083000 68 213 0.0 2.0 0.11 0.52 0.50 97 1014.7
20260903082751 68 213 0.0 5.0 0.10 0.51 0.49 97 1014.8
20260903082650 68 213 0.0 5.0 0.10 0.51 0.49 97 1014.9
20260903082550 68 213 0.0 5.0 0.10 0.51 0.49 97 1014.9
20260903082520 68 213 0.0 5.0 0.10 0.51 0.49 97 1015.1
20260903082449 68 213 1.0 5.0 0.10 0.51 0.49 97 1015.0
20260903082349 68 217 1.0 5.0 0.10 0.51 0.49 97 1015.1
20260903082308 68 213 1.0 5.0 0.09 0.50 0.48 97 1015.4
20260903082306 68 211 1.0 5.0 0.09 0.50 0.49 97 1015.2
20260903082255 68 211 1.0 5.0 0.09 0.50 0.48 97 1015.4
20260903082047 68 213 1.0 5.0 0.08 0.49 0.47 97 1015.6
20260903082020 68 240 1.0 5.0 0.08 0.49 0.47 97 1015.8
20260903081946 68 252 1.0 5.0 0.07 0.48 0.47 97 1015.7
20260903081925 68 196 1.0 3.0 0.06 0.47 0.45 97 1016.0
20260903081846 68 250 1.0 5.0 0.06 0.47 0.46 97 1015.9
20260903081800 68 199 1.0 3.0 0.06 0.47 0.45 97 1016.1
20260903081645 68 196 1.0 3.0 0.06 0.47 0.45 97 1016.0
20260903081544 68 196 1.0 3.0 0.06 0.47 0.45 97 1016.0
20260903081520 68 195 1.0 3.0 0.06 0.47 0.45 97 1015.8
20260903081444 68 195 1.0 3.0 0.06 0.47 0.45 97 1015.7
20260903081344 68 195 1.0 3.0 0.05 0.46 0.44 97 1015.6
20260903081242 68 194 0.0 3.0 0.05 0.46 0.44 97 1015.3
20260903081142 68 194 0.0 3.0 0.05 0.46 0.44 97 1015.0
20260903081041 68 194 0.0 3.0 0.05 0.46 0.44 97 1014.8
20260903081020 68 181 1.0 3.0 0.05 0.46 0.44 97 1014.8
20260903080941 68 181 0.0 3.0 0.05 0.46 0.44 97 1014.7
20260903080841 68 169 0.0 2.0 0.05 0.46 0.44 97 1014.6
20260903080740 68 51 0.0 1.0 0.05 0.46 0.44 97 1014.7
20260903080639 68 51 0.0 2.0 0.05 0.46 0.44 97 1014.6
20260903080539 68 51 0.0 2.0 0.04 0.45 0.43 97 1014.7
20260903080520 68 51 0.0 2.0 0.04 0.45 0.43 97 1014.8
20260903080438 68 51 0.0 2.0 0.04 0.45 0.43 97 1014.7
20260903080337 68 95 0.0 2.0 0.04 0.45 0.43 97 1014.6
20260903080237 68 95 0.0 2.0 0.04 0.45 0.43 97 1014.7
20260903080137 68 95 0.0 4.0 0.04 0.45 0.43 97 1014.7
20260903080036 68 95 0.0 4.0 0.03 0.44 0.43 97 1014.8
20260903080021 68 95 0.0 4.0 0.04 0.45 0.43 97 1014.8
20260903075934 68 95 0.0 4.0 0.03 0.44 0.42 97 1014.7
20260903075848 68 95 0.0 4.0 0.03 0.44 0.42 97 1014.8
20260903075843 68 95 0.0 4.0 0.03 0.44 0.42 97 1014.7
20260903075651 68 96 0.0 4.0 0.03 0.44 0.42 97 1015.1
20260903075633 68 350 0.0 4.0 0.03 0.44 0.42 97 1015.1
20260903075533 68 292 0.0 4.0 0.03 0.44 0.42 97 1015.4
20260903075520 68 292 0.0 4.0 0.03 0.44 0.42 97 1015.6
20260903075445 68 292 0.0 4.0 0.02 0.43 0.41 97 1015.6
20260903075440 68 292 0.0 4.0 0.02 0.43 0.42 97 1015.5
20260903075246 68 293 0.0 4.0 0.02 0.43 0.41 97 1015.5
20260903075238 68 312 0.0 4.0 0.02 0.43 0.41 97 1015.5
20260903075031 68 312 0.0 4.0 0.02 0.43 0.41 97 1015.4
20260903075020 68 312 0.0 4.0 0.02 0.43 0.41 97 1015.5
20260903074930 68 309 0.0 4.0 0.02 0.43 0.41 97 1015.4
20260903074830 68 309 0.0 4.0 0.02 0.43 0.41 97 1015.4
20260903074729 68 308 0.0 4.0 0.02 0.43 0.41 97 1015.4
20260903074657 68 252 0.0 1.0 0.02 0.43 0.41 97 1015.4
20260903074650 68 252 0.0 0.0 0.02 0.43 0.41 97 1015.4
20260903074537 68 252 0.0 0.0 0.02 0.43 0.41 97 1015.3
20260903074520 68 252 0.0 0.0 0.02 0.43 0.41 97 1015.3
20260903074354 68 186 0.0 0.0 0.02 0.43 0.41 97 1015.0
20260903074240 68 186 0.0 0.0 0.02 0.43 0.41 97 1015.0
20260903074232 68 186 0.0 0.0 0.02 0.43 0.41 97 1015.0
20260903074025 68 186 0.0 0.0 0.02 0.43 0.41 97 1015.0
20260903074020 68 186 0.0 0.0 0.02 0.43 0.41 97 1015.1
20260903073926 68 186 0.0 0.0 0.01 0.42 0.41 97 1015.0
20260903073836 68 186 0.0 0.0 0.00 0.41 0.40 97 1015.0
20260903073831 68 186 0.0 0.0 0.01 0.42 0.40 97 1015.0
20260903073621 68 186 0.0 0.0 0.00 0.41 0.39 97 1015.0
20260903073604 68 186 0.0 0.0 0.00 0.41 0.39 97 1015.1
20260903073535 68 186 0.0 0.0 0.00 0.41 0.39 97 1015.0
20260903073530 68 186 0.0 0.0 0.00 0.41 0.39 97 1014.9
20260903073319 68 186 0.0 0.0 0.00 0.41 0.39 97 1014.9
20260903073219 68 186 0.0 0.0 0.00 0.41 0.39 97 1014.9
20260903073152 68 186 0.0 0.0 0.00 0.41 0.39 97 1014.8
20260903073118 68 186 0.0 0.0 0.00 0.41 0.39 97 1014.8
20260903073020 68 186 0.0 0.0 0.00 0.41 0.39 97 1014.7
20260903073018 68 186 0.0 0.0 0.00 0.41 0.39 97 1014.7
20260903072923 68 186 0.0 0.0 0.00 0.41 0.39 97 1014.4
20260903072917 68 186 0.0 0.0 0.00 0.41 0.39 97 1014.6
20260903072817 68 186 0.0 0.0 0.00 0.41 0.39 97 1014.4
20260903072805 68 186 0.0 0.0 0.00 0.41 0.39 97 1014.4
20260903072651 68 186 0.0 0.0 0.00 0.41 0.39 97 1014.4
20260903072538 68 186 0.0 0.0 0.00 0.41 0.39 97 1014.5
20260903072534 68 186 0.0 0.0 0.01 0.41 0.39 97 1014.6
20260903072529 68 186 0.0 0.0 0.00 0.41 0.39 97 1014.5
20260903072519 68 186 0.0 0.0 0.00 0.41 0.39 97 1014.6
20260903072415 68 186 0.0 0.0 0.00 0.41 0.39 97 1014.5
20260903072406 68 186 0.0 0.0 0.00 0.41 0.39 97 1014.6
20260903072145 68 186 0.0 0.0 0.01 0.41 0.39 97 1014.5
20260903072138 68 186 0.0 0.0 0.00 0.41 0.39 97 1014.5
20260903072050 68 186 0.0 0.0 0.00 0.41 0.39 97 1014.6
20260903071710 68 186 0.0 0.0 0.01 0.41 0.39 97 1014.5
20260903071646 68 186 0.0 0.0 0.01 0.41 0.39 97 1014.5
20260903071610 68 186 0.0 0.0 0.01 0.41 0.39 97 1014.5
20260903071519 68 186 0.0 0.0 0.01 0.41 0.39 97 1014.6
20260903071510 68 186 0.0 0.0 0.01 0.41 0.39 97 1014.5
20260903071409 68 186 0.0 0.0 0.01 0.41 0.39 97 1014.5
20260903071323 68 186 0.0 0.0 0.03 0.41 0.39 97 1014.4
20260903071318 68 186 0.0 0.0 0.02 0.41 0.39 97 1014.5
20260903071143 68 186 0.0 0.0 0.03 0.41 0.39 97 1014.5
20260903071108 68 186 0.0 0.0 0.03 0.41 0.39 97 1014.5
20260903071020 68 186 0.0 0.0 0.04 0.41 0.39 97 1014.5
20260903071014 68 186 0.0 0.0 0.04 0.41 0.39 97 1014.5
20260903070805 68 186 0.0 0.0 0.04 0.41 0.39 97 1014.5
20260903070705 68 186 0.0 0.0 0.04 0.41 0.39 97 1014.4
20260903070643 68 186 0.0 0.0 0.04 0.41 0.39 97 1014.4
20260903070604 68 186 0.0 0.0 0.04 0.41 0.39 97 1014.4
20260903070520 69 186 0.0 0.0 0.05 0.41 0.39 97 1014.5
20260903070503 69 186 0.0 0.0 0.05 0.41 0.39 97 1014.4
20260903070403 69 186 0.0 0.0 0.05 0.41 0.39 97 1014.4
20260903070303 69 186 0.0 0.0 0.05 0.41 0.39 97 1014.4
20260903070142 69 186 0.0 0.0 0.05 0.41 0.39 97 1014.4
20260903070019 69 186 0.0 0.0 0.06 0.41 0.39 97 1014.5
20260903070000 69 186 0.0 0.0 0.06 0.41 0.39 97 1014.4
20260903065859 69 186 0.0 0.0 0.06 0.41 0.39 97 1014.4
20260903065758 69 186 0.0 0.0 0.06 0.41 0.39 96 1014.4
20260903065640 69 186 0.0 0.0 0.07 0.41 0.39 96 1014.3
20260903065557 69 186 0.0 0.0 0.07 0.41 0.39 96 1014.4
20260903065520 69 186 0.0 0.0 0.07 0.41 0.39 96 1014.5
20260903065456 69 186 0.0 0.0 0.07 0.41 0.39 96 1014.4
20260903065356 69 186 0.0 0.0 0.07 0.41 0.39 96 1014.5
20260903065255 69 186 0.0 0.0 0.07 0.41 0.39 96 1014.5
20260903065141 69 186 0.0 0.0 0.08 0.41 0.39 96 1014.5
20260903065053 69 186 0.0 0.0 0.09 0.41 0.39 96 1014.4
20260903065035 69 186 0.0 0.0 0.09 0.41 0.39 96 1014.5
20260903064953 69 186 0.0 0.0 0.11 0.41 0.39 96 1014.4
20260903064853 69 186 0.0 0.0 0.11 0.41 0.39 96 1014.4
20260903064808 69 186 0.0 0.0 0.17 0.41 0.39 96 1014.3
20260903064803 69 186 0.0 0.0 0.14 0.41 0.39 96 1014.3
20260903064639 69 186 0.0 0.0 0.17 0.41 0.39 96 1014.3
20260903064551 69 186 0.0 0.0 0.22 0.41 0.39 96 1014.3
20260903064535 69 186 0.0 0.0 0.24 0.41 0.39 96 1014.3
20260903064451 69 186 0.0 0.0 0.26 0.41 0.39 96 1014.2
20260903064350 69 186 0.0 0.0 0.29 0.41 0.39 96 1014.2
20260903064248 69 186 0.0 0.0 0.31 0.41 0.39 96 1014.2
20260903064138 69 186 0.0 0.0 0.32 0.41 0.39 96 1014.2
20260903064046 69 186 0.0 0.0 0.33 0.41 0.39 96 1014.3
20260903064020 69 186 0.0 0.0 0.32 0.41 0.39 96 1014.4
20260903063945 69 186 0.0 0.0 0.33 0.41 0.39 96 1014.3
20260903063845 69 186 0.0 0.0 0.34 0.41 0.39 96 1014.4
20260903063744 69 186 0.0 0.0 0.34 0.41 0.39 96 1014.3
20260903063643 69 186 0.0 0.0 0.34 0.41 0.39 96 1014.3
20260903063637 69 186 0.0 0.0 0.35 0.41 0.39 96 1014.3
20260903063557 69 186 0.0 0.0 0.35 0.41 0.39 96 1014.3
20260903063552 69 186 0.0 0.0 0.35 0.41 0.39 96 1014.3
20260903063520 69 186 0.0 0.0 0.35 0.41 0.39 96 1014.4
20260903063342 69 186 0.0 0.0 0.35 0.41 0.39 96 1014.3
20260903063242 69 186 0.0 0.0 0.36 0.41 0.39 96 1014.4
20260903063136 69 186 0.0 0.0 0.36 0.41 0.39 96 1014.4
20260903063041 69 186 0.0 0.0 0.36 0.41 0.39 96 1014.4
20260903063020 69 186 0.0 0.0 0.36 0.41 0.39 96 1014.6
20260903062940 69 186 0.0 0.0 0.36 0.41 0.39 96 1014.5
20260903062840 69 186 0.0 0.0 0.37 0.41 0.39 96 1014.4
20260903062757 69 186 0.0 0.0 0.38 0.41 0.39 96 1014.3
20260903062751 69 186 0.0 0.0 0.37 0.41 0.39 96 1014.4
20260903062635 69 186 0.0 0.0 0.38 0.41 0.39 96 1014.3
20260903062538 69 186 0.0 0.0 0.38 0.41 0.39 96 1014.4
20260903062520 69 186 0.0 0.0 0.38 0.41 0.39 96 1014.5
20260903062438 69 186 0.0 0.0 0.38 0.41 0.39 96 1014.4
20260903062337 69 186 0.0 0.0 0.38 0.41 0.39 96 1014.5
20260903062237 69 186 0.0 0.0 0.38 0.41 0.39 96 1014.6
20260903062133 69 186 0.0 0.0 0.38 0.41 0.39 96 1014.6
20260903062037 69 186 0.0 0.0 0.38 0.41 0.39 96 1014.7
20260903062020 69 186 0.0 0.0 0.38 0.41 0.39 96 1014.8
20260903061937 69 186 0.0 0.0 0.38 0.40 0.39 96 1014.7
20260903061836 69 186 0.0 0.0 0.38 0.40 0.38 96 1014.8
20260903061736 69 186 0.0 0.0 0.38 0.40 0.38 96 1014.8
20260903061718 69 186 0.0 0.0 0.38 0.40 0.38 96 1014.9
20260903061705 69 186 0.0 0.0 0.38 0.40 0.38 96 1014.9
20260903061534 69 186 0.0 0.0 0.38 0.40 0.38 96 1015.1
20260903061444 69 186 0.0 0.0 0.38 0.40 0.38 96 1015.0
20260903061234 69 186 0.0 0.0 0.37 0.39 0.37 96 1015.1
20260903061135 69 186 0.0 0.0 0.36 0.38 0.37 96 1015.2
20260903061035 69 188 0.0 0.0 0.36 0.38 0.36 96 1015.3
20260903061033 69 188 0.0 0.0 0.36 0.38 0.36 96 1015.2
20260903061001 69 188 0.0 0.0 0.35 0.37 0.36 96 1015.2
20260903060832 69 187 0.0 0.0 0.35 0.37 0.35 96 1015.1
20260903060746 69 201 0.0 0.0 0.35 0.37 0.35 96 1015.1